EW2975 Weather Reports


Display with metric or nautical units.
time (UTC)temp
F
wind
direction
speed
MPH
gust
MPH
rain 1hr
in
rain 24hr
in
rain mn
in
humidity
%
barometer
mb
20260902190706 100 329 4.0 11.0 0.00 0.00 0.00 39 1012.5
20260902190605 100 330 4.0 11.0 0.00 0.00 0.00 38 1012.6
20260902190505 100 335 4.0 11.0 0.00 0.00 0.00 40 1012.5
20260902190405 99 344 3.0 11.0 0.00 0.00 0.00 40 1012.5
20260902190306 99 357 3.0 8.0 0.00 0.00 0.00 39 1012.6
20260902190205 99 11 3.0 8.0 0.00 0.00 0.00 39 1012.6
20260902190105 99 46 3.0 8.0 0.00 0.00 0.00 39 1012.6
20260902190005 100 61 3.0 8.0 0.00 0.00 0.00 38 1012.7
20260902185905 100 61 3.0 8.0 0.00 0.00 0.00 38 1012.7
20260902185805 101 63 3.0 8.0 0.00 0.00 0.00 38 1012.6
20260902185506 99 61 2.0 8.0 0.00 0.00 0.00 40 1012.6
20260902185307 100 43 2.0 6.0 0.00 0.00 0.00 39 1012.7
20260902185208 100 30 3.0 6.0 0.00 0.00 0.00 39 1012.7
20260902185105 99 7 3.0 6.0 0.00 0.00 0.00 41 1012.8
20260902185005 99 349 3.0 7.0 0.00 0.00 0.00 41 1012.7
20260902184905 98 337 3.0 10.0 0.00 0.00 0.00 41 1012.7
20260902184805 98 334 4.0 10.0 0.00 0.00 0.00 41 1012.8
20260902184705 98 331 4.0 10.0 0.00 0.00 0.00 41 1012.8
20260902184605 98 335 5.0 10.0 0.00 0.00 0.00 41 1012.8
20260902184405 98 332 5.0 10.0 0.00 0.00 0.00 41 1012.8
20260902184306 98 330 5.0 10.0 0.00 0.00 0.00 40 1012.9
20260902184205 99 328 5.0 10.0 0.00 0.00 0.00 40 1012.9
20260902184105 100 327 5.0 10.0 0.00 0.00 0.00 39 1013.0
20260902184005 100 327 4.0 10.0 0.00 0.00 0.00 40 1013.0
20260902183305 99 305 2.0 7.0 0.00 0.00 0.00 41 1013.0
20260902183205 98 308 2.0 7.0 0.00 0.00 0.00 41 1013.0
20260902183105 98 312 3.0 7.0 0.00 0.00 0.00 41 1013.0
20260902183007 98 309 3.0 9.0 0.00 0.00 0.00 41 1013.1
20260902182905 99 307 3.0 9.0 0.00 0.00 0.00 41 1013.1
20260902182604 98 308 4.0 9.0 0.00 0.00 0.00 40 1013.1
20260902182405 98 299 5.0 9.0 0.00 0.00 0.00 40 1013.2
20260902182306 99 297 5.0 11.0 0.00 0.00 0.00 40 1013.2
20260902182205 98 295 5.0 11.0 0.00 0.00 0.00 41 1013.2
20260902182105 98 291 4.0 11.0 0.00 0.00 0.00 42 1013.3
20260902182005 98 289 4.0 11.0 0.00 0.00 0.00 41 1013.3
20260902181905 98 288 4.0 11.0 0.00 0.00 0.00 40 1013.3
20260902181804 98 287 4.0 11.0 0.00 0.00 0.00 40 1013.4
20260902181705 98 286 4.0 11.0 0.00 0.00 0.00 40 1013.4
20260902181506 99 287 4.0 11.0 0.00 0.00 0.00 40 1013.4
20260902181404 99 288 4.0 12.0 0.00 0.00 0.00 41 1013.4
20260902181305 99 289 4.0 12.0 0.00 0.00 0.00 41 1013.4
20260902181105 98 302 4.0 12.0 0.00 0.00 0.00 41 1013.5
20260902181005 98 299 4.0 12.0 0.00 0.00 0.00 40 1013.5
20260902180905 98 296 4.0 12.0 0.00 0.00 0.00 40 1013.5
20260902180805 98 293 4.0 12.0 0.00 0.00 0.00 40 1013.5
20260902180605 98 284 4.0 12.0 0.00 0.00 0.00 41 1013.5
20260902180504 98 283 3.0 12.0 0.00 0.00 0.00 41 1013.5
20260902180405 99 281 4.0 10.0 0.00 0.00 0.00 39 1013.6
20260902180304 99 276 3.0 10.0 0.00 0.00 0.00 41 1013.6
20260902180205 99 263 3.0 8.0 0.00 0.00 0.00 41 1013.6
20260902180105 99 255 4.0 8.0 0.00 0.00 0.00 41 1013.6
20260902180007 99 256 4.0 8.0 0.00 0.00 0.00 42 1013.7
20260902175905 98 258 3.0 8.0 0.00 0.00 0.00 41 1013.6
20260902175705 98 259 4.0 8.0 0.00 0.00 0.00 42 1013.6
20260902175605 98 255 4.0 8.0 0.00 0.00 0.00 41 1013.7
20260902175505 98 242 4.0 8.0 0.00 0.00 0.00 41 1013.7
20260902175404 98 232 3.0 8.0 0.00 0.00 0.00 41 1013.7
20260902175307 98 221 3.0 8.0 0.00 0.00 0.00 41 1013.7
20260902175105 98 219 3.0 8.0 0.00 0.00 0.00 43 1013.8
20260902174905 97 228 3.0 7.0 0.00 0.00 0.00 42 1013.8
20260902174805 97 229 3.0 7.0 0.00 0.00 0.00 42 1013.8
20260902174706 98 235 3.0 7.0 0.00 0.00 0.00 42 1013.9
20260902174606 97 246 3.0 7.0 0.00 0.00 0.00 42 1013.9
20260902174505 97 289 3.0 7.0 0.00 0.00 0.00 43 1013.9
20260902174204 97 343 3.0 7.0 0.00 0.00 0.00 43 1014.0
20260902174105 97 346 3.0 7.0 0.00 0.00 0.00 42 1014.0
20260902174004 97 357 3.0 7.0 0.00 0.00 0.00 42 1014.1
20260902173905 97 346 3.0 7.0 0.00 0.00 0.00 42 1014.0
20260902173805 97 322 4.0 7.0 0.00 0.00 0.00 42 1014.1
20260902173704 97 306 3.0 7.0 0.00 0.00 0.00 43 1014.1
20260902173605 97 303 3.0 7.0 0.00 0.00 0.00 43 1014.1
20260902173505 97 292 3.0 7.0 0.00 0.00 0.00 42 1014.2
20260902173405 97 295 3.0 7.0 0.00 0.00 0.00 42 1014.3
20260902173305 97 300 3.0 7.0 0.00 0.00 0.00 42 1014.2
20260902173205 97 304 3.0 7.0 0.00 0.00 0.00 43 1014.2
20260902173106 98 318 3.0 7.0 0.00 0.00 0.00 41 1014.2
20260902173005 98 326 3.0 7.0 0.00 0.00 0.00 41 1014.2
20260902172905 98 331 3.0 7.0 0.00 0.00 0.00 41 1014.2
20260902172804 98 338 3.0 7.0 0.00 0.00 0.00 42 1014.3
20260902172604 97 333 3.0 7.0 0.00 0.00 0.00 43 1014.3
20260902172505 97 325 3.0 7.0 0.00 0.00 0.00 43 1014.2
20260902172405 97 308 3.0 7.0 0.00 0.00 0.00 42 1014.3
20260902172308 97 306 3.0 7.0 0.00 0.00 0.00 42 1014.3
20260902172205 97 307 3.0 7.0 0.00 0.00 0.00 41 1014.3
20260902172006 97 307 3.0 6.0 0.00 0.00 0.00 43 1014.3
20260902171904 97 306 2.0 8.0 0.00 0.00 0.00 42 1014.4
20260902171805 97 301 3.0 8.0 0.00 0.00 0.00 43 1014.3
20260902171705 97 295 3.0 8.0 0.00 0.00 0.00 43 1014.3
20260902171604 97 297 3.0 8.0 0.00 0.00 0.00 43 1014.4
20260902171505 96 303 3.0 8.0 0.00 0.00 0.00 43 1014.4
20260902171305 97 307 4.0 9.0 0.00 0.00 0.00 42 1014.4
20260902171205 97 306 5.0 9.0 0.00 0.00 0.00 44 1014.4
20260902171105 97 303 5.0 9.0 0.00 0.00 0.00 44 1014.4
20260902171005 96 300 5.0 10.0 0.00 0.00 0.00 44 1014.5
20260902170905 96 299 5.0 11.0 0.00 0.00 0.00 44 1014.5
20260902170805 96 297 6.0 11.0 0.00 0.00 0.00 43 1014.5
20260902170505 97 307 6.0 16.0 0.00 0.00 0.00 42 1014.6
20260902170404 97 308 5.0 16.0 0.00 0.00 0.00 43 1014.5
20260902170204 97 309 5.0 16.0 0.00 0.00 0.00 42 1014.5
20260902170105 97 310 4.0 16.0 0.00 0.00 0.00 43 1014.5
20260902170004 96 310 4.0 16.0 0.00 0.00 0.00 43 1014.7
20260902165905 96 311 4.0 16.0 0.00 0.00 0.00 43 1014.7
20260902165804 96 316 3.0 16.0 0.00 0.00 0.00 43 1014.6
20260902165705 96 321 3.0 9.0 0.00 0.00 0.00 44 1014.7
20260902165604 96 314 3.0 9.0 0.00 0.00 0.00 44 1014.7
20260902165505 96 308 3.0 9.0 0.00 0.00 0.00 43 1014.7
20260902165404 96 295 3.0 9.0 0.00 0.00 0.00 44 1014.6
20260902165309 96 289 3.0 9.0 0.00 0.00 0.00 44 1014.7
20260902165105 96 276 4.0 9.0 0.00 0.00 0.00 43 1014.7
20260902165006 96 263 4.0 9.0 0.00 0.00 0.00 43 1014.7
20260902164905 96 251 4.0 9.0 0.00 0.00 0.00 44 1014.6
20260902164804 96 235 4.0 9.0 0.00 0.00 0.00 43 1014.7
20260902164505 96 210 4.0 9.0 0.00 0.00 0.00 44 1014.7
20260902164405 96 210 4.0 9.0 0.00 0.00 0.00 44 1014.7
20260902164305 95 209 4.0 9.0 0.00 0.00 0.00 44 1014.8
20260902164205 96 208 4.0 9.0 0.00 0.00 0.00 44 1014.8
20260902164004 95 219 4.0 9.0 0.00 0.00 0.00 44 1014.8
20260902163805 95 226 4.0 9.0 0.00 0.00 0.00 44 1014.8
20260902163705 95 230 4.0 9.0 0.00 0.00 0.00 45 1014.8
20260902163605 95 238 4.0 8.0 0.00 0.00 0.00 45 1014.8
20260902163505 95 255 3.0 8.0 0.00 0.00 0.00 46 1014.8
20260902163404 94 264 3.0 8.0 0.00 0.00 0.00 45 1014.8
20260902163305 94 270 3.0 8.0 0.00 0.00 0.00 45 1014.8
20260902163205 94 275 3.0 8.0 0.00 0.00 0.00 46 1014.8
20260902163005 94 278 3.0 8.0 0.00 0.00 0.00 46 1014.8
20260902162905 94 280 3.0 8.0 0.00 0.00 0.00 46 1014.9
20260902162805 95 281 3.0 8.0 0.00 0.00 0.00 45 1014.9
20260902162705 95 281 3.0 8.0 0.00 0.00 0.00 45 1014.9
20260902162605 95 283 3.0 8.0 0.00 0.00 0.00 45 1014.9
20260902162505 95 280 3.0 6.0 0.00 0.00 0.00 46 1014.9
20260902162405 95 275 2.0 6.0 0.00 0.00 0.00 45 1014.9
20260902162307 95 279 2.0 6.0 0.00 0.00 0.00 46 1014.9
20260902162205 95 288 2.0 6.0 0.00 0.00 0.00 46 1014.9
20260902162105 95 291 3.0 6.0 0.00 0.00 0.00 45 1014.9
20260902162005 95 298 3.0 6.0 0.00 0.00 0.00 46 1014.9
20260902161905 95 302 3.0 7.0 0.00 0.00 0.00 46 1014.9
20260902161805 95 299 3.0 7.0 0.00 0.00 0.00 46 1014.9
20260902161705 95 292 3.0 7.0 0.00 0.00 0.00 46 1014.9
20260902161605 95 280 3.0 7.0 0.00 0.00 0.00 46 1014.9
20260902161506 94 281 3.0 7.0 0.00 0.00 0.00 46 1014.9
20260902161405 94 298 3.0 7.0 0.00 0.00 0.00 47 1014.9
20260902161305 95 308 3.0 7.0 0.00 0.00 0.00 46 1015.0
20260902161205 94 308 3.0 8.0 0.00 0.00 0.00 46 1015.0
20260902161105 94 307 3.0 8.0 0.00 0.00 0.00 47 1015.0
20260902161005 94 302 3.0 8.0 0.00 0.00 0.00 46 1015.0
20260902160905 94 293 3.0 8.0 0.00 0.00 0.00 46 1015.0
20260902160805 94 293 3.0 8.0 0.00 0.00 0.00 46 1015.0
20260902160705 94 297 3.0 8.0 0.00 0.00 0.00 47 1015.0
20260902160604 94 305 3.0 8.0 0.00 0.00 0.00 47 1015.0
20260902160505 93 304 3.0 8.0 0.00 0.00 0.00 48 1015.0
20260902160305 93 290 3.0 8.0 0.00 0.00 0.00 49 1015.0
20260902160104 92 284 3.0 7.0 0.00 0.00 0.00 49 1015.1
20260902160007 92 288 3.0 7.0 0.00 0.00 0.00 49 1015.0
20260902155904 92 291 4.0 7.0 0.00 0.00 0.00 50 1015.0
20260902155805 92 291 4.0 7.0 0.00 0.00 0.00 49 1015.0
20260902155505 93 294 4.0 9.0 0.00 0.00 0.00 48 1015.2
20260902155405 93 296 4.0 9.0 0.00 0.00 0.00 49 1015.2
20260902155307 93 297 4.0 9.0 0.00 0.00 0.00 50 1015.2
20260902155205 92 301 4.0 9.0 0.00 0.00 0.00 49 1015.1
20260902155104 92 300 4.0 9.0 0.00 0.00 0.00 50 1015.1
20260902155005 92 299 4.0 9.0 0.00 0.00 0.00 50 1015.1
20260902154805 92 303 4.0 9.0 0.00 0.00 0.00 50 1015.1
20260902154705 92 304 4.0 9.0 0.00 0.00 0.00 50 1015.1
20260902154604 92 308 4.0 9.0 0.00 0.00 0.00 50 1015.1
20260902154505 92 308 4.0 9.0 0.00 0.00 0.00 50 1015.1
20260902154404 92 309 4.0 9.0 0.00 0.00 0.00 50 1015.1
20260902154304 92 311 4.0 9.0 0.00 0.00 0.00 50 1015.1
20260902154105 92 307 4.0 9.0 0.00 0.00 0.00 50 1015.1
20260902154004 92 303 3.0 8.0 0.00 0.00 0.00 50 1015.1
20260902153905 92 296 3.0 8.0 0.00 0.00 0.00 50 1015.1
20260902153804 92 292 4.0 8.0 0.00 0.00 0.00 50 1015.1
20260902153705 92 291 4.0 8.0 0.00 0.00 0.00 50 1015.1
20260902153604 92 289 3.0 8.0 0.00 0.00 0.00 51 1015.1
20260902153505 92 290 3.0 7.0 0.00 0.00 0.00 51 1015.1
20260902153204 91 295 3.0 8.0 0.00 0.00 0.00 52 1015.1
20260902153105 91 289 3.0 8.0 0.00 0.00 0.00 52 1015.1
20260902153004 91 289 3.0 8.0 0.00 0.00 0.00 52 1015.1
20260902152905 91 287 3.0 8.0 0.00 0.00 0.00 52 1015.1
20260902152804 91 283 3.0 8.0 0.00 0.00 0.00 52 1015.1
20260902152704 91 278 3.0 8.0 0.00 0.00 0.00 52 1015.1
20260902152505 91 270 3.0 8.0 0.00 0.00 0.00 52 1015.2
20260902152404 91 259 3.0 8.0 0.00 0.00 0.00 52 1015.1
20260902152307 91 255 3.0 8.0 0.00 0.00 0.00 53 1015.1
20260902152105 90 259 3.0 9.0 0.00 0.00 0.00 54 1015.2
20260902152005 90 257 3.0 9.0 0.00 0.00 0.00 54 1015.2
20260902151905 90 257 3.0 9.0 0.00 0.00 0.00 53 1015.1
20260902151805 90 255 4.0 9.0 0.00 0.00 0.00 54 1015.1
20260902151604 90 258 4.0 9.0 0.00 0.00 0.00 54 1015.1
20260902151505 90 258 4.0 9.0 0.00 0.00 0.00 54 1015.1
20260902151404 90 258 5.0 9.0 0.00 0.00 0.00 55 1015.1
20260902151305 90 256 4.0 9.0 0.00 0.00 0.00 55 1015.1
20260902151105 89 260 4.0 8.0 0.00 0.00 0.00 55 1015.1
20260902151005 89 265 4.0 8.0 0.00 0.00 0.00 55 1015.1
20260902150905 89 270 3.0 8.0 0.00 0.00 0.00 55 1015.1
20260902150704 89 287 2.0 7.0 0.00 0.00 0.00 55 1015.1
20260902150604 89 289 2.0 7.0 0.00 0.00 0.00 55 1015.1
20260902150505 89 290 2.0 7.0 0.00 0.00 0.00 56 1015.1
20260902150404 89 293 1.0 6.0 0.00 0.00 0.00 56 1015.1
20260902150305 89 313 1.0 6.0 0.00 0.00 0.00 56 1015.1
20260902150204 89 22 1.0 4.0 0.00 0.00 0.00 57 1015.1
20260902150105 89 92 2.0 5.0 0.00 0.00 0.00 57 1015.1
20260902150004 89 97 2.0 6.0 0.00 0.00 0.00 57 1015.1
20260902145905 88 97 2.0 6.0 0.00 0.00 0.00 58 1015.1
20260902145705 88 100 2.0 6.0 0.00 0.00 0.00 59 1015.1
20260902145505 87 95 2.0 6.0 0.00 0.00 0.00 59 1015.2
20260902145404 88 93 2.0 6.0 0.00 0.00 0.00 59 1015.2
20260902145306 88 89 2.0 6.0 0.00 0.00 0.00 57 1015.2
20260902145205 88 81 2.0 6.0 0.00 0.00 0.00 58 1015.2
20260902145105 88 72 2.0 6.0 0.00 0.00 0.00 59 1015.2
20260902145005 88 56 2.0 3.0 0.00 0.00 0.00 59 1015.2
20260902144906 88 47 2.0 3.0 0.00 0.00 0.00 59 1015.2
20260902144805 88 37 2.0 3.0 0.00 0.00 0.00 58 1015.2
20260902144604 87 19 2.0 3.0 0.00 0.00 0.00 59 1015.2
20260902144505 87 15 2.0 3.0 0.00 0.00 0.00 59 1015.2
20260902144404 87 15 2.0 3.0 0.00 0.00 0.00 58 1015.2
20260902144305 87 9 2.0 3.0 0.00 0.00 0.00 60 1015.2
20260902144204 87 3 1.0 3.0 0.00 0.00 0.00 60 1015.2
20260902144105 87 355 1.0 3.0 0.00 0.00 0.00 60 1015.2
20260902144004 87 352 1.0 3.0 0.00 0.00 0.00 60 1015.2
20260902143905 87 345 1.0 3.0 0.00 0.00 0.00 60 1015.2
20260902143806 87 330 1.0 3.0 0.00 0.00 0.00 60 1015.2
20260902143705 86 329 1.0 3.0 0.00 0.00 0.00 62 1015.2
20260902143604 86 331 1.0 3.0 0.00 0.00 0.00 62 1015.2
20260902143505 86 330 1.0 3.0 0.00 0.00 0.00 63 1015.2
20260902143404 85 328 1.0 3.0 0.00 0.00 0.00 63 1015.2
20260902143204 85 319 1.0 3.0 0.00 0.00 0.00 62 1015.2
20260902143005 85 321 2.0 4.0 0.00 0.00 0.00 62 1015.2
20260902142904 85 322 2.0 4.0 0.00 0.00 0.00 62 1015.2
20260902142805 86 322 2.0 4.0 0.00 0.00 0.00 62 1015.2
20260902142705 86 319 2.0 4.0 0.00 0.00 0.00 62 1015.2
20260902142605 86 317 2.0 4.0 0.00 0.00 0.00 62 1015.2
20260902142505 86 312 2.0 4.0 0.00 0.00 0.00 63 1015.2
20260902142404 85 305 2.0 4.0 0.00 0.00 0.00 63 1015.2
20260902142306 85 305 2.0 4.0 0.00 0.00 0.00 63 1015.2
20260902142204 85 307 2.0 4.0 0.00 0.00 0.00 63 1015.1
20260902142105 85 307 2.0 4.0 0.00 0.00 0.00 63 1015.2
20260902142004 85 301 2.0 4.0 0.00 0.00 0.00 63 1015.1
20260902141905 85 297 2.0 4.0 0.00 0.00 0.00 64 1015.2
20260902141804 85 294 1.0 4.0 0.00 0.00 0.00 63 1015.2
20260902141705 85 292 1.0 4.0 0.00 0.00 0.00 63 1015.2
20260902141604 85 294 1.0 4.0 0.00 0.00 0.00 63 1015.1
20260902141405 85 300 1.0 4.0 0.00 0.00 0.00 64 1015.1
20260902141305 85 295 0.0 4.0 0.00 0.00 0.00 64 1015.1
20260902141204 84 283 0.0 4.0 0.00 0.00 0.00 64 1015.1
20260902141004 84 193 0.0 2.0 0.00 0.00 0.00 66 1015.1
20260902140805 84 186 1.0 3.0 0.00 0.00 0.00 66 1015.1
20260902140705 84 190 1.0 3.0 0.00 0.00 0.00 67 1015.1
20260902140504 84 194 1.0 3.0 0.00 0.00 0.00 67 1015.1
20260902140405 84 189 1.0 3.0 0.00 0.00 0.00 67 1015.1
20260902140305 84 185 1.0 3.0 0.00 0.00 0.00 68 1015.1
20260902140205 84 178 1.0 3.0 0.00 0.00 0.00 68 1015.1
20260902140005 84 168 1.0 3.0 0.00 0.00 0.00 68 1015.1
20260902135904 84 161 1.0 3.0 0.00 0.00 0.00 68 1015.1
20260902135805 84 149 1.0 3.0 0.00 0.00 0.00 68 1015.1
20260902135704 84 124 1.0 3.0 0.00 0.00 0.00 68 1015.0
20260902135604 84 106 1.0 3.0 0.00 0.00 0.00 69 1015.1
20260902135506 83 91 1.0 3.0 0.00 0.00 0.00 69 1015.1
20260902135404 83 87 2.0 3.0 0.00 0.00 0.00 69 1015.1
20260902135306 83 85 2.0 4.0 0.00 0.00 0.00 69 1015.1
20260902135205 83 84 2.0 4.0 0.00 0.00 0.00 70 1015.1
20260902135104 83 84 2.0 4.0 0.00 0.00 0.00 70 1015.1
20260902134904 83 83 2.0 4.0 0.00 0.00 0.00 70 1015.1
20260902134806 83 82 2.0 4.0 0.00 0.00 0.00 70 1015.1
20260902134704 83 81 2.0 4.0 0.00 0.00 0.00 70 1015.1
20260902134504 83 82 2.0 4.0 0.00 0.00 0.00 69 1015.1
20260902134404 83 81 2.0 4.0 0.00 0.00 0.00 70 1015.1
20260902134304 83 81 2.0 4.0 0.00 0.00 0.00 71 1015.1
20260902134205 82 78 2.0 4.0 0.00 0.00 0.00 71 1015.1
20260902134104 82 77 2.0 4.0 0.00 0.00 0.00 71 1015.1
20260902134005 82 76 2.0 4.0 0.00 0.00 0.00 72 1015.0
20260902133904 82 75 1.0 4.0 0.00 0.00 0.00 72 1015.0
20260902133704 82 75 1.0 4.0 0.00 0.00 0.00 72 1015.1
20260902133605 82 76 1.0 3.0 0.00 0.00 0.00 72 1015.0
20260902133504 82 76 0.0 3.0 0.00 0.00 0.00 72 1015.0
20260902133404 82 80 0.0 3.0 0.00 0.00 0.00 72 1014.9
20260902133204 81 80 0.0 3.0 0.00 0.00 0.00 72 1014.9
20260902133105 81 0 0.0 0.0 0.00 0.00 0.00 72 1014.9
20260902133004 81 0 0.0 0.0 0.00 0.00 0.00 73 1014.9
20260902132905 81 0 0.0 0.0 0.00 0.00 0.00 72 1014.8
20260902132804 81 0 0.0 0.0 0.00 0.00 0.00 72 1014.9
20260902132704 81 0 0.0 0.0 0.00 0.00 0.00 72 1014.8
20260902132604 81 0 0.0 0.0 0.00 0.00 0.00 73 1014.9
20260902132505 81 0 0.0 0.0 0.00 0.00 0.00 74 1014.8
20260902132404 80 0 0.0 0.0 0.00 0.00 0.00 75 1014.9
20260902132306 80 104 0.0 3.0 0.00 0.00 0.00 75 1014.8
20260902132104 80 107 1.0 5.0 0.00 0.00 0.00 75 1014.7
20260902132004 80 104 1.0 5.0 0.00 0.00 0.00 75 1014.7
20260902131904 80 100 2.0 5.0 0.00 0.00 0.00 76 1014.7
20260902131804 80 98 2.0 6.0 0.00 0.00 0.00 76 1014.7
20260902131604 79 95 3.0 6.0 0.00 0.00 0.00 76 1014.7
20260902131506 79 94 3.0 6.0 0.00 0.00 0.00 76 1014.7
20260902131404 79 93 3.0 6.0 0.00 0.00 0.00 76 1014.7
20260902131304 79 92 3.0 6.0 0.00 0.00 0.00 76 1014.7
20260902131204 79 91 3.0 6.0 0.00 0.00 0.00 76 1014.7
20260902131105 79 90 2.0 6.0 0.00 0.00 0.00 76 1014.7
20260902131004 79 89 2.0 6.0 0.00 0.00 0.00 76 1014.7
20260902130904 79 90 2.0 6.0 0.00 0.00 0.00 76 1014.7
20260902130804 79 88 1.0 5.0 0.00 0.00 0.00 77 1014.7
20260902130706 79 87 1.0 5.0 0.00 0.00 0.00 77 1014.7
20260902130604 79 89 1.0 4.0 0.00 0.00 0.00 77 1014.6
20260902130505 79 87 0.0 4.0 0.00 0.00 0.00 77 1014.7
20260902130404 79 86 0.0 4.0 0.00 0.00 0.00 77 1014.6
20260902130304 78 0 0.0 0.0 0.00 0.00 0.00 77 1014.6
20260902130105 78 0 0.0 0.0 0.00 0.00 0.00 77 1014.4
20260902130005 78 0 0.0 0.0 0.00 0.00 0.00 77 1014.4
20260902125911 78 0 0.0 0.0 0.00 0.00 0.00 77 1014.3
20260902125805 78 0 0.0 0.0 0.00 0.00 0.00 77 1014.3
20260902125704 78 0 0.0 0.0 0.00 0.00 0.00 77 1014.3
20260902125604 78 0 0.0 0.0 0.00 0.00 0.00 77 1014.3
20260902125505 78 0 0.0 0.0 0.00 0.00 0.00 77 1014.3
20260902125405 78 0 0.0 0.0 0.00 0.00 0.00 77 1014.3
20260902125306 78 0 0.0 0.0 0.00 0.00 0.00 78 1014.3
20260902125204 78 0 0.0 0.0 0.00 0.00 0.00 78 1014.3
20260902125104 78 0 0.0 0.0 0.00 0.00 0.00 78 1014.3
20260902124904 78 0 0.0 0.0 0.00 0.00 0.00 78 1014.3
20260902124705 77 0 0.0 0.0 0.00 0.00 0.00 79 1014.2
20260902124605 77 0 0.0 0.0 0.00 0.00 0.00 79 1014.2
20260902124505 77 0 0.0 0.0 0.00 0.00 0.00 79 1014.2
20260902124404 77 0 0.0 0.0 0.00 0.00 0.00 79 1014.3
20260902124305 77 0 0.0 0.0 0.00 0.00 0.00 79 1014.2
20260902124204 77 0 0.0 0.0 0.00 0.00 0.00 79 1014.2
20260902124005 77 0 0.0 0.0 0.00 0.00 0.00 79 1014.2
20260902123805 77 0 0.0 0.0 0.00 0.00 0.00 79 1014.2
20260902123604 77 0 0.0 0.0 0.00 0.00 0.00 79 1014.1
20260902123404 77 0 0.0 0.0 0.00 0.00 0.00 79 1014.1
20260902123306 77 0 0.0 0.0 0.00 0.00 0.00 79 1014.1
20260902123205 77 0 0.0 0.0 0.00 0.00 0.00 79 1014.1
20260902123104 77 0 0.0 0.0 0.00 0.00 0.00 79 1014.1
20260902122905 77 0 0.0 0.0 0.00 0.00 0.00 79 1014.2
20260902122804 77 0 0.0 0.0 0.00 0.00 0.00 79 1014.1
20260902122705 77 0 0.0 0.0 0.00 0.00 0.00 79 1014.1
20260902122506 77 0 0.0 0.0 0.00 0.00 0.00 79 1014.1
20260902122404 77 0 0.0 0.0 0.00 0.00 0.00 79 1014.1
20260902122204 77 0 0.0 0.0 0.00 0.00 0.00 79 1014.1
20260902122105 77 0 0.0 0.0 0.00 0.00 0.00 79 1014.1
20260902121904 77 0 0.0 0.0 0.00 0.00 0.00 79 1014.1
20260902121804 77 0 0.0 0.0 0.00 0.00 0.00 79 1014.1
20260902121704 77 0 0.0 0.0 0.00 0.00 0.00 79 1014.1
20260902121604 77 0 0.0 0.0 0.00 0.00 0.00 79 1014.2
20260902121504 77 0 0.0 0.0 0.00 0.00 0.00 79 1014.2
20260902121404 77 0 0.0 0.0 0.00 0.00 0.00 79 1014.2
20260902121305 77 0 0.0 0.0 0.00 0.00 0.00 79 1014.2
20260902121104 77 0 0.0 0.0 0.00 0.00 0.00 79 1014.2
20260902121005 77 0 0.0 0.0 0.00 0.00 0.00 79 1014.2
20260902120904 77 0 0.0 0.0 0.00 0.00 0.00 79 1014.2
20260902120806 77 0 0.0 0.0 0.00 0.00 0.00 79 1014.2
20260902120704 77 0 0.0 0.0 0.00 0.00 0.00 79 1014.2
20260902120604 77 0 0.0 0.0 0.00 0.00 0.00 79 1014.2
20260902120505 77 0 0.0 0.0 0.00 0.00 0.00 79 1014.2
20260902120404 77 0 0.0 0.0 0.00 0.00 0.00 79 1014.2
20260902120304 77 0 0.0 0.0 0.00 0.00 0.00 79 1014.2
20260902120205 77 0 0.0 0.0 0.00 0.00 0.00 79 1014.2
20260902120005 77 0 0.0 0.0 0.00 0.00 0.00 79 1014.2
20260902115904 77 0 0.0 0.0 0.00 0.00 0.00 79 1014.2
20260902115804 77 0 0.0 0.0 0.00 0.00 0.00 79 1014.2
20260902115704 76 0 0.0 0.0 0.00 0.00 0.00 80 1014.2
20260902115605 76 0 0.0 0.0 0.00 0.00 0.00 80 1014.2
20260902115404 76 0 0.0 0.0 0.00 0.00 0.00 80 1014.2
20260902115308 76 0 0.0 0.0 0.00 0.00 0.00 80 1014.1
20260902115104 76 0 0.0 0.0 0.00 0.00 0.00 80 1014.2
20260902115004 76 0 0.0 0.0 0.00 0.00 0.00 80 1014.2
20260902114804 76 0 0.0 0.0 0.00 0.00 0.00 80 1014.2
20260902114704 76 0 0.0 0.0 0.00 0.00 0.00 80 1014.2
20260902114605 76 0 0.0 0.0 0.00 0.00 0.00 80 1014.2
20260902114405 76 0 0.0 0.0 0.00 0.00 0.00 80 1014.2
20260902114304 76 0 0.0 0.0 0.00 0.00 0.00 80 1014.2
20260902114104 76 0 0.0 0.0 0.00 0.00 0.00 80 1014.2
20260902114005 76 0 0.0 0.0 0.00 0.00 0.00 80 1014.2
20260902113904 76 0 0.0 0.0 0.00 0.00 0.00 80 1014.3
20260902113805 76 0 0.0 0.0 0.00 0.00 0.00 80 1014.2
20260902113604 76 0 0.0 0.0 0.00 0.00 0.00 80 1014.2
20260902113305 76 0 0.0 0.0 0.00 0.00 0.00 80 1014.2
20260902113204 76 0 0.0 0.0 0.00 0.00 0.00 80 1014.1
20260902113104 76 0 0.0 0.0 0.00 0.00 0.00 80 1014.2
20260902113004 76 0 0.0 0.0 0.00 0.00 0.00 80 1014.2
20260902112904 76 0 0.0 0.0 0.00 0.00 0.00 80 1014.2
20260902112804 76 0 0.0 0.0 0.00 0.00 0.00 80 1014.2
20260902112704 76 0 0.0 0.0 0.00 0.00 0.00 80 1014.2
20260902112604 76 0 0.0 0.0 0.00 0.00 0.00 80 1014.2
20260902112504 76 0 0.0 0.0 0.00 0.00 0.00 80 1014.2
20260902112404 76 0 0.0 0.0 0.00 0.00 0.00 80 1014.2
20260902112305 76 0 0.0 0.0 0.00 0.00 0.00 80 1014.2
20260902112204 76 0 0.0 0.0 0.00 0.00 0.00 80 1014.2
20260902112105 76 0 0.0 0.0 0.00 0.00 0.00 80 1014.2
20260902112004 76 0 0.0 0.0 0.00 0.00 0.00 80 1014.1
20260902111904 76 0 0.0 0.0 0.00 0.00 0.00 80 1014.1
20260902111804 76 0 0.0 0.0 0.00 0.00 0.00 80 1014.1
20260902111704 76 0 0.0 0.0 0.00 0.00 0.00 80 1014.1
20260902111604 76 0 0.0 0.0 0.00 0.00 0.00 80 1014.0
20260902111404 76 0 0.0 0.0 0.00 0.00 0.00 80 1014.0
20260902111304 76 0 0.0 0.0 0.00 0.00 0.00 79 1014.1
20260902111104 76 0 0.0 0.0 0.00 0.00 0.00 79 1014.1
20260902111004 76 0 0.0 0.0 0.00 0.00 0.00 79 1014.1
20260902110904 76 0 0.0 0.0 0.00 0.00 0.00 79 1014.1
20260902110804 76 0 0.0 0.0 0.00 0.00 0.00 79 1014.1
20260902110704 76 0 0.0 0.0 0.00 0.00 0.00 79 1014.0
20260902110605 76 0 0.0 0.0 0.00 0.00 0.00 79 1014.1
20260902110504 77 0 0.0 0.0 0.00 0.00 0.00 78 1014.0
20260902110405 77 0 0.0 0.0 0.00 0.00 0.00 78 1014.0
20260902110304 77 0 0.0 0.0 0.00 0.00 0.00 78 1014.0
20260902110204 77 0 0.0 0.0 0.00 0.00 0.00 78 1014.0
20260902110104 77 0 0.0 0.0 0.00 0.00 0.00 78 1014.0
20260902110007 77 0 0.0 0.0 0.00 0.00 0.00 78 1014.0
20260902105904 77 0 0.0 0.0 0.00 0.00 0.00 78 1013.9
20260902105804 77 0 0.0 0.0 0.00 0.00 0.00 78 1013.9
20260902105704 77 0 0.0 0.0 0.00 0.00 0.00 78 1013.9
20260902105604 77 0 0.0 0.0 0.00 0.00 0.00 78 1013.9
20260902105504 77 0 0.0 0.0 0.00 0.00 0.00 78 1013.9
20260902105405 77 0 0.0 0.0 0.00 0.00 0.00 78 1013.8
20260902105206 77 0 0.0 0.0 0.00 0.00 0.00 78 1013.9
20260902105104 77 0 0.0 0.0 0.00 0.00 0.00 78 1013.9
20260902105005 77 0 0.0 0.0 0.00 0.00 0.00 78 1013.9
20260902104904 77 0 0.0 0.0 0.00 0.00 0.00 78 1013.9
20260902104805 77 0 0.0 0.0 0.00 0.00 0.00 78 1013.9
20260902104704 77 0 0.0 0.0 0.00 0.00 0.00 78 1013.9
20260902104604 77 0 0.0 0.0 0.00 0.00 0.00 78 1013.9
20260902104505 77 0 0.0 0.0 0.00 0.00 0.00 78 1013.9
20260902104405 77 0 0.0 0.0 0.00 0.00 0.00 78 1013.9
20260902104204 77 0 0.0 0.0 0.00 0.00 0.00 77 1013.9
20260902104105 77 0 0.0 0.0 0.00 0.00 0.00 77 1013.9
20260902104004 77 0 0.0 0.0 0.00 0.00 0.00 77 1013.9
20260902103904 77 0 0.0 0.0 0.00 0.00 0.00 77 1013.8
20260902103804 77 0 0.0 0.0 0.00 0.00 0.00 77 1013.8
20260902103704 78 0 0.0 0.0 0.00 0.00 0.00 76 1013.8
20260902103504 78 0 0.0 0.0 0.00 0.00 0.00 76 1013.8
20260902103404 78 252 0.0 1.0 0.00 0.00 0.00 76 1013.8
20260902103304 78 247 0.0 2.0 0.00 0.00 0.00 76 1013.8
20260902103204 78 243 0.0 3.0 0.00 0.00 0.00 76 1013.9
20260902103104 78 248 1.0 3.0 0.00 0.00 0.00 76 1013.8
20260902102905 78 251 1.0 4.0 0.00 0.00 0.00 76 1013.8
20260902102804 78 250 1.0 4.0 0.00 0.00 0.00 76 1013.8
20260902102703 78 250 1.0 4.0 0.00 0.00 0.00 76 1013.8
20260902102604 78 250 1.0 4.0 0.00 0.00 0.00 76 1013.8
20260902102505 78 249 2.0 4.0 0.00 0.00 0.00 76 1013.7
20260902102405 78 249 2.0 4.0 0.00 0.00 0.00 76 1013.7
20260902102005 78 250 2.0 4.0 0.00 0.00 0.00 76 1013.7
20260902101904 78 251 2.0 4.0 0.00 0.00 0.00 76 1013.7
20260902101804 78 254 2.0 4.0 0.00 0.00 0.00 76 1013.7
20260902101704 78 255 2.0 4.0 0.00 0.00 0.00 76 1013.7
20260902101605 78 255 2.0 4.0 0.00 0.00 0.00 76 1013.7
20260902101504 78 257 1.0 4.0 0.00 0.00 0.00 76 1013.7
20260902101304 78 257 1.0 3.0 0.00 0.00 0.00 76 1013.7
20260902101204 78 257 2.0 3.0 0.00 0.00 0.00 76 1013.8
20260902101004 78 261 2.0 3.0 0.00 0.00 0.00 76 1013.8
20260902100904 78 261 2.0 3.0 0.00 0.00 0.00 76 1013.8
20260902100804 78 261 2.0 3.0 0.00 0.00 0.00 76 1013.9
20260902100704 78 262 2.0 3.0 0.00 0.00 0.00 76 1013.9
20260902100604 78 263 2.0 3.0 0.00 0.00 0.00 76 1013.9
20260902100504 78 263 2.0 3.0 0.00 0.00 0.00 76 1013.9
20260902100405 78 264 2.0 3.0 0.00 0.00 0.00 76 1013.9
20260902100304 78 265 2.0 3.0 0.00 0.00 0.00 76 1014.0
20260902100204 78 265 1.0 3.0 0.00 0.00 0.00 75 1014.0
20260902100104 78 265 1.0 3.0 0.00 0.00 0.00 76 1014.0
20260902100004 78 264 1.0 3.0 0.00 0.00 0.00 76 1014.0
20260902095804 78 266 1.0 3.0 0.00 0.00 0.00 76 1014.0
20260902095704 78 265 1.0 3.0 0.00 0.00 0.00 75 1014.0
20260902095604 78 265 0.0 3.0 0.00 0.00 0.00 75 1014.0
20260902095503 78 266 0.0 3.0 0.00 0.00 0.00 75 1014.1
20260902095404 78 0 0.0 0.0 0.00 0.00 0.00 75 1014.1
20260902095307 78 0 0.0 0.0 0.00 0.00 0.00 75 1014.0
20260902095104 79 0 0.0 0.0 0.00 0.00 0.00 75 1014.1
20260902094904 79 0 0.0 0.0 0.00 0.00 0.00 74 1014.1
20260902094804 79 0 0.0 0.0 0.00 0.00 0.00 74 1014.1
20260902094704 79 0 0.0 0.0 0.00 0.00 0.00 74 1014.1
20260902094605 79 0 0.0 0.0 0.00 0.00 0.00 74 1014.1
20260902094504 79 0 0.0 0.0 0.00 0.00 0.00 74 1014.1
20260902094404 79 208 0.0 1.0 0.00 0.00 0.00 74 1014.1
20260902094305 79 207 0.0 1.0 0.00 0.00 0.00 74 1014.1
20260902094204 79 207 0.0 1.0 0.00 0.00 0.00 74 1014.1
20260902094104 79 207 0.0 1.0 0.00 0.00 0.00 74 1014.1
20260902094004 79 210 0.0 3.0 0.00 0.00 0.00 74 1014.1
20260902093704 79 204 1.0 3.0 0.00 0.00 0.00 74 1014.1
20260902093605 79 204 1.0 3.0 0.00 0.00 0.00 74 1014.1
20260902093405 79 200 1.0 3.0 0.00 0.00 0.00 74 1014.1
20260902093304 79 198 1.0 3.0 0.00 0.00 0.00 74 1014.1
20260902093204 79 196 2.0 3.0 0.00 0.00 0.00 74 1014.1
20260902093005 79 191 2.0 3.0 0.00 0.00 0.00 75 1014.0
20260902092904 79 189 2.0 3.0 0.00 0.00 0.00 74 1014.1
20260902092804 79 187 2.0 3.0 0.00 0.00 0.00 75 1014.1
20260902092704 79 187 2.0 3.0 0.00 0.00 0.00 75 1014.1
20260902092604 79 187 2.0 3.0 0.00 0.00 0.00 75 1014.1
20260902092504 79 184 2.0 3.0 0.00 0.00 0.00 75 1014.1
20260902092405 79 182 2.0 3.0 0.00 0.00 0.00 75 1014.1
20260902092305 79 179 2.0 3.0 0.00 0.00 0.00 75 1014.1
20260902092204 79 177 2.0 3.0 0.00 0.00 0.00 75 1014.1
20260902092105 79 175 2.0 3.0 0.00 0.00 0.00 75 1014.1
20260902092005 79 173 2.0 3.0 0.00 0.00 0.00 75 1014.1
20260902091804 78 168 2.0 3.0 0.00 0.00 0.00 75 1014.0
20260902091704 78 166 2.0 3.0 0.00 0.00 0.00 75 1014.1
20260902091604 78 164 2.0 3.0 0.00 0.00 0.00 75 1014.1
20260902091404 78 159 2.0 3.0 0.00 0.00 0.00 75 1014.2
20260902091204 78 152 2.0 3.0 0.00 0.00 0.00 75 1014.2
20260902091104 78 149 1.0 3.0 0.00 0.00 0.00 75 1014.2
20260902091004 78 148 1.0 3.0 0.00 0.00 0.00 74 1014.2
20260902090904 78 148 1.0 3.0 0.00 0.00 0.00 74 1014.3
20260902090704 78 149 1.0 3.0 0.00 0.00 0.00 74 1014.2
20260902090604 79 150 1.0 3.0 0.00 0.00 0.00 74 1014.3
20260902090504 79 152 1.0 3.0 0.00 0.00 0.00 74 1014.2
20260902090404 79 152 1.0 3.0 0.00 0.00 0.00 74 1014.3
20260902090304 79 158 1.0 3.0 0.00 0.00 0.00 74 1014.3
20260902090205 79 159 1.0 4.0 0.00 0.00 0.00 74 1014.3
20260902090005 79 157 1.0 4.0 0.00 0.00 0.00 74 1014.3
20260902085904 79 158 2.0 4.0 0.00 0.00 0.00 74 1014.3
20260902085804 79 160 2.0 4.0 0.00 0.00 0.00 74 1014.2
20260902085604 79 160 2.0 4.0 0.00 0.00 0.00 74 1014.2
20260902085404 79 161 2.0 4.0 0.00 0.00 0.00 74 1014.2
20260902085306 79 160 2.0 4.0 0.00 0.00 0.00 74 1014.2
20260902085205 79 159 2.0 4.0 0.00 0.00 0.00 74 1014.2
20260902085105 79 158 2.0 4.0 0.00 0.00 0.00 74 1014.2
20260902084904 79 159 2.0 4.0 0.00 0.00 0.00 73 1014.2
20260902084804 79 157 2.0 4.0 0.00 0.00 0.00 73 1014.2
20260902084704 79 158 2.0 4.0 0.00 0.00 0.00 73 1014.2
20260902084604 79 157 2.0 4.0 0.00 0.00 0.00 73 1014.2
20260902084504 79 156 1.0 4.0 0.00 0.00 0.00 73 1014.3
20260902084405 79 154 1.0 4.0 0.00 0.00 0.00 73 1014.2
20260902084304 79 154 1.0 4.0 0.00 0.00 0.00 73 1014.2
20260902084204 79 153 1.0 4.0 0.00 0.00 0.00 73 1014.3
20260902084104 79 152 1.0 4.0 0.00 0.00 0.00 73 1014.2
20260902084004 79 149 1.0 4.0 0.00 0.00 0.00 73 1014.2
20260902083904 79 147 2.0 4.0 0.00 0.00 0.00 73 1014.2
20260902083805 79 146 1.0 4.0 0.00 0.00 0.00 73 1014.3
20260902083704 79 145 2.0 4.0 0.00 0.00 0.00 73 1014.2
20260902083604 79 145 2.0 4.0 0.00 0.00 0.00 73 1014.2
20260902083504 79 144 2.0 4.0 0.00 0.00 0.00 73 1014.2
20260902083405 79 143 2.0 4.0 0.00 0.00 0.00 73 1014.2
20260902083304 79 141 2.0 4.0 0.00 0.00 0.00 73 1014.2
20260902083204 79 139 2.0 4.0 0.00 0.00 0.00 73 1014.2
20260902083104 79 136 2.0 4.0 0.00 0.00 0.00 73 1014.3
20260902083005 79 135 2.0 4.0 0.00 0.00 0.00 73 1014.2
20260902082904 79 133 2.0 4.0 0.00 0.00 0.00 73 1014.3
20260902082805 79 132 2.0 4.0 0.00 0.00 0.00 73 1014.3
20260902082704 79 132 2.0 4.0 0.00 0.00 0.00 73 1014.3
20260902082605 79 130 2.0 4.0 0.00 0.00 0.00 73 1014.3
20260902082405 79 127 2.0 4.0 0.00 0.00 0.00 73 1014.3
20260902082309 79 125 2.0 4.0 0.00 0.00 0.00 73 1014.3
20260902082205 79 124 2.0 3.0 0.00 0.00 0.00 73 1014.3
20260902082004 79 125 2.0 4.0 0.00 0.00 0.00 72 1014.3
20260902081904 79 123 2.0 4.0 0.00 0.00 0.00 72 1014.3
20260902081804 79 124 2.0 4.0 0.00 0.00 0.00 72 1014.3
20260902081703 79 122 2.0 4.0 0.00 0.00 0.00 72 1014.3
20260902081604 79 124 2.0 4.0 0.00 0.00 0.00 72 1014.3
20260902081506 79 124 3.0 5.0 0.00 0.00 0.00 72 1014.3
20260902081404 80 124 3.0 5.0 0.00 0.00 0.00 72 1014.3
20260902081304 80 124 3.0 5.0 0.00 0.00 0.00 72 1014.3
20260902081204 80 126 3.0 8.0 0.00 0.00 0.00 72 1014.3
20260902081104 80 126 3.0 8.0 0.00 0.00 0.00 72 1014.3
20260902081004 80 126 3.0 8.0 0.00 0.00 0.00 72 1014.3
20260902080905 80 127 3.0 8.0 0.00 0.00 0.00 72 1014.3
20260902080805 80 125 3.0 8.0 0.00 0.00 0.00 72 1014.3
20260902080704 80 125 3.0 8.0 0.00 0.00 0.00 72 1014.3
20260902080504 80 123 3.0 8.0 0.00 0.00 0.00 72 1014.3
20260902080405 80 123 3.0 8.0 0.00 0.00 0.00 72 1014.3
20260902080304 80 122 3.0 8.0 0.00 0.00 0.00 72 1014.3
20260902080204 80 120 3.0 8.0 0.00 0.00 0.00 72 1014.3
20260902080104 80 117 3.0 6.0 0.00 0.00 0.00 72 1014.3
20260902080004 80 117 3.0 6.0 0.00 0.00 0.00 72 1014.3
20260902075804 80 116 3.0 6.0 0.00 0.00 0.00 72 1014.3
20260902075703 80 115 3.0 6.0 0.00 0.00 0.00 72 1014.3
20260902075605 80 115 3.0 6.0 0.00 0.00 0.00 72 1014.4
20260902075505 80 115 3.0 5.0 0.00 0.00 0.00 72 1014.3
20260902075404 80 115 3.0 5.0 0.00 0.00 0.00 72 1014.4
20260902075204 80 117 3.0 5.0 0.00 0.00 0.00 72 1014.4
20260902075103 80 118 3.0 5.0 0.00 0.00 0.00 72 1014.4
20260902074804 80 119 3.0 5.0 0.00 0.00 0.00 72 1014.4
20260902074704 80 120 3.0 5.0 0.00 0.00 0.00 72 1014.4
20260902074604 80 120 3.0 5.0 0.00 0.00 0.00 71 1014.4
20260902074504 80 119 3.0 5.0 0.00 0.00 0.00 71 1014.4
20260902074404 80 118 3.0 5.0 0.00 0.00 0.00 71 1014.4
20260902074304 80 117 3.0 5.0 0.00 0.00 0.00 71 1014.4
20260902074203 80 117 3.0 5.0 0.00 0.00 0.00 71 1014.4
20260902074104 80 117 3.0 5.0 0.00 0.00 0.00 71 1014.5
20260902074004 80 116 3.0 5.0 0.00 0.00 0.00 71 1014.4
20260902073904 80 116 3.0 5.0 0.00 0.00 0.00 71 1014.4
20260902073804 80 116 3.0 5.0 0.00 0.00 0.00 71 1014.4
20260902073703 80 115 3.0 6.0 0.00 0.00 0.00 71 1014.4
20260902073604 80 115 3.0 6.0 0.00 0.00 0.00 71 1014.4
20260902073503 80 115 3.0 6.0 0.00 0.00 0.00 71 1014.4
20260902073404 80 116 3.0 6.0 0.00 0.00 0.00 71 1014.4
20260902073304 80 117 3.0 6.0 0.00 0.00 0.00 71 1014.3
20260902073204 80 117 3.0 8.0 0.00 0.00 0.00 71 1014.4
20260902073004 80 115 3.0 8.0 0.00 0.00 0.00 71 1014.4
20260902072904 80 115 3.0 8.0 0.00 0.00 0.00 71 1014.4
20260902072604 80 116 3.0 8.0 0.00 0.00 0.00 71 1014.4
20260902072504 80 116 3.0 8.0 0.00 0.00 0.00 71 1014.5
20260902072404 80 117 3.0 8.0 0.00 0.00 0.00 71 1014.4
20260902072309 80 118 2.0 8.0 0.00 0.00 0.00 71 1014.4
20260902072204 80 119 2.0 5.0 0.00 0.00 0.00 71 1014.4
20260902072104 80 121 2.0 5.0 0.00 0.00 0.00 71 1014.5
20260902072004 80 123 3.0 5.0 0.00 0.00 0.00 71 1014.5
20260902071605 80 125 3.0 5.0 0.00 0.00 0.00 71 1014.5
20260902071504 80 125 3.0 7.0 0.00 0.00 0.00 71 1014.5
20260902071403 80 124 3.0 7.0 0.00 0.00 0.00 71 1014.5
20260902071304 80 123 3.0 7.0 0.00 0.00 0.00 71 1014.4
20260902071204 80 123 3.0 7.0 0.00 0.00 0.00 71 1014.4
20260902071104 80 123 3.0 7.0 0.00 0.00 0.00 71 1014.5
20260902071004 80 123 3.0 7.0 0.00 0.00 0.00 71 1014.5
20260902070904 80 124 3.0 7.0 0.00 0.00 0.00 71 1014.5
20260902070804 80 124 3.0 7.0 0.00 0.00 0.00 71 1014.5
20260902070703 80 122 3.0 7.0 0.00 0.00 0.00 71 1014.5
20260902070604 80 122 3.0 7.0 0.00 0.00 0.00 71 1014.4
20260902070404 81 121 3.0 6.0 0.00 0.00 0.00 70 1014.5
20260902070304 81 123 3.0 6.0 0.00 0.00 0.00 70 1014.5
20260902070204 81 122 3.0 8.0 0.00 0.00 0.00 70 1014.5
20260902070005 81 122 3.0 8.0 0.00 0.00 0.00 70 1014.5
20260902065904 81 122 3.0 8.0 0.00 0.00 0.00 70 1014.5
20260902065804 81 122 3.0 8.0 0.00 0.00 0.00 70 1014.5
20260902065705 81 123 3.0 8.0 0.00 0.00 0.00 70 1014.5
20260902065604 81 125 3.0 8.0 0.00 0.00 0.00 70 1014.5
20260902065503 81 126 3.0 8.0 0.00 0.00 0.00 70 1014.5
20260902065404 81 127 3.0 8.0 0.00 0.00 0.00 70 1014.5
20260902065204 81 128 2.0 7.0 0.00 0.00 0.00 70 1014.6
20260902065103 81 130 2.0 7.0 0.00 0.00 0.00 70 1014.6
20260902065004 81 130 2.0 7.0 0.00 0.00 0.00 70 1014.5
20260902064903 81 129 2.0 5.0 0.00 0.00 0.00 70 1014.6
20260902064804 81 129 3.0 6.0 0.00 0.00 0.00 70 1014.6
20260902064704 81 130 3.0 6.0 0.00 0.00 0.00 70 1014.6
20260902064604 81 129 3.0 8.0 0.00 0.00 0.00 70 1014.6
20260902064504 81 130 3.0 8.0 0.00 0.00 0.00 70 1014.6
20260902064304 81 130 3.0 8.0 0.00 0.00 0.00 69 1014.6
20260902064205 81 131 3.0 8.0 0.00 0.00 0.00 69 1014.6
20260902064104 81 131 3.0 8.0 0.00 0.00 0.00 69 1014.6
20260902064004 81 130 4.0 8.0 0.00 0.00 0.00 69 1014.6
20260902063704 81 126 3.0 8.0 0.00 0.00 0.00 69 1014.6
20260902063603 81 125 3.0 8.0 0.00 0.00 0.00 69 1014.6
20260902063504 81 125 4.0 8.0 0.00 0.00 0.00 69 1014.6
20260902063204 81 119 4.0 8.0 0.00 0.00 0.00 69 1014.6
20260902063004 81 119 4.0 8.0 0.00 0.00 0.00 69 1014.7
20260902062903 81 119 4.0 8.0 0.00 0.00 0.00 69 1014.7
20260902062804 81 119 4.0 8.0 0.00 0.00 0.00 69 1014.7
20260902062604 81 120 4.0 8.0 0.00 0.00 0.00 69 1014.7
20260902062504 82 120 4.0 8.0 0.00 0.00 0.00 69 1014.7
20260902062404 82 120 4.0 9.0 0.00 0.00 0.00 69 1014.7
20260902062306 82 120 4.0 9.0 0.00 0.00 0.00 69 1014.7
20260902062204 82 120 4.0 9.0 0.00 0.00 0.00 69 1014.7
20260902062103 82 120 4.0 9.0 0.00 0.00 0.00 69 1014.7
20260902062004 82 121 4.0 9.0 0.00 0.00 0.00 69 1014.8
20260902061904 82 121 4.0 9.0 0.00 0.00 0.00 69 1014.7
20260902061804 82 120 4.0 9.0 0.00 0.00 0.00 68 1014.7
20260902061704 82 119 4.0 9.0 0.00 0.00 0.00 68 1014.8
20260902061504 82 117 4.0 9.0 0.00 0.00 0.00 68 1014.7
20260902061405 82 118 5.0 9.0 0.00 0.00 0.00 68 1014.7
20260902061304 82 116 5.0 9.0 0.00 0.00 0.00 68 1014.8
20260902061205 82 117 5.0 9.0 0.00 0.00 0.00 68 1014.7
20260902061104 82 117 5.0 9.0 0.00 0.00 0.00 68 1014.8
20260902061004 82 116 5.0 9.0 0.00 0.00 0.00 68 1014.7
20260902060905 82 115 5.0 9.0 0.00 0.00 0.00 68 1014.7
20260902060804 82 117 5.0 9.0 0.00 0.00 0.00 68 1014.7
20260902060704 82 118 5.0 9.0 0.00 0.00 0.00 68 1014.8
20260902060604 82 119 5.0 9.0 0.00 0.00 0.00 68 1014.8
20260902060503 82 119 5.0 9.0 0.00 0.00 0.00 68 1014.8
20260902060405 82 119 5.0 9.0 0.00 0.00 0.00 68 1014.7
20260902060303 82 120 5.0 9.0 0.00 0.00 0.00 68 1014.8
20260902060204 82 120 5.0 9.0 0.00 0.00 0.00 68 1014.7
20260902060103 82 118 5.0 9.0 0.00 0.00 0.00 68 1014.7
20260902055904 82 119 4.0 9.0 0.00 0.00 0.00 68 1014.7
20260902055804 82 118 5.0 9.0 0.00 0.00 0.00 68 1014.7
20260902055703 82 117 5.0 9.0 0.00 0.00 0.00 68 1014.7
20260902055604 82 117 5.0 9.0 0.00 0.00 0.00 68 1014.7
20260902055503 82 117 5.0 10.0 0.00 0.00 0.00 68 1014.7
20260902055404 82 115 5.0 10.0 0.00 0.00 0.00 67 1014.7
20260902055306 82 115 5.0 10.0 0.00 0.00 0.00 67 1014.7
20260902055204 82 114 5.0 10.0 0.00 0.00 0.00 67 1014.7
20260902055103 82 115 5.0 10.0 0.00 0.00 0.00 67 1014.7
20260902054604 82 112 5.0 10.0 0.00 0.00 0.00 67 1014.6
20260902054404 82 112 5.0 10.0 0.00 0.00 0.00 67 1014.6
20260902054304 82 113 5.0 10.0 0.00 0.00 0.00 67 1014.7
20260902054204 82 113 4.0 10.0 0.00 0.00 0.00 67 1014.6
20260902054104 82 112 4.0 10.0 0.00 0.00 0.00 67 1014.6
20260902053903 82 112 5.0 10.0 0.00 0.00 0.00 67 1014.6
20260902053703 82 111 5.0 10.0 0.00 0.00 0.00 67 1014.6
20260902053504 82 110 5.0 10.0 0.00 0.00 0.00 67 1014.5
20260902053403 82 109 5.0 10.0 0.00 0.00 0.00 67 1014.5
20260902053304 82 108 5.0 10.0 0.00 0.00 0.00 67 1014.6
20260902053204 82 107 5.0 10.0 0.00 0.00 0.00 67 1014.6
20260902053104 82 107 5.0 10.0 0.00 0.00 0.00 66 1014.5
20260902053004 82 106 5.0 10.0 0.00 0.00 0.00 66 1014.5
20260902052904 82 107 5.0 10.0 0.00 0.00 0.00 66 1014.5
20260902052704 82 107 5.0 10.0 0.00 0.00 0.00 66 1014.5
20260902052604 82 108 5.0 10.0 0.00 0.00 0.00 66 1014.6
20260902052504 82 109 5.0 10.0 0.00 0.00 0.00 66 1014.6
20260902052403 83 110 4.0 10.0 0.00 0.00 0.00 66 1014.5
20260902052306 83 112 4.0 10.0 0.00 0.00 0.00 66 1014.5
20260902052104 83 115 4.0 9.0 0.00 0.00 0.00 66 1014.5
20260902052004 83 117 4.0 9.0 0.00 0.00 0.00 66 1014.5
20260902051903 83 119 3.0 9.0 0.00 0.00 0.00 66 1014.5
20260902051804 83 117 3.0 9.0 0.00 0.00 0.00 66 1014.5
20260902051703 83 116 3.0 9.0 0.00 0.00 0.00 65 1014.6
20260902051604 83 115 3.0 9.0 0.00 0.00 0.00 65 1014.5
20260902051503 83 115 4.0 9.0 0.00 0.00 0.00 65 1014.5
20260902051404 83 113 4.0 9.0 0.00 0.00 0.00 65 1014.5
20260902051304 83 113 4.0 9.0 0.00 0.00 0.00 65 1014.5
20260902051204 83 113 4.0 9.0 0.00 0.00 0.00 65 1014.5
20260902051003 83 114 4.0 9.0 0.00 0.00 0.00 65 1014.5
20260902050804 83 114 4.0 7.0 0.00 0.00 0.00 65 1014.5
20260902050704 83 114 4.0 7.0 0.00 0.00 0.00 65 1014.5
20260902050603 83 115 4.0 7.0 0.00 0.00 0.00 65 1014.5
20260902050504 83 114 4.0 9.0 0.00 0.00 0.00 65 1014.5
20260902050304 83 115 4.0 9.0 0.00 0.00 0.00 64 1014.5
20260902050204 83 114 4.0 9.0 0.00 0.00 0.00 64 1014.5
20260902050104 83 114 4.0 9.0 0.00 0.00 0.00 64 1014.4
20260902050008 83 112 4.0 9.0 0.00 0.00 0.00 64 1014.5
20260902045904 83 113 4.0 9.0 0.00 0.00 0.00 64 1014.4
20260902045803 83 112 5.0 9.0 0.00 0.00 0.00 64 1014.5
20260902045704 83 111 5.0 9.0 0.00 0.00 0.00 64 1014.4
20260902045604 83 109 5.0 9.0 0.00 0.00 0.00 64 1014.4
20260902045504 83 109 4.0 9.0 0.00 0.00 0.00 64 1014.4
20260902045405 83 110 4.0 9.0 0.00 0.00 0.00 64 1014.4
20260902045306 84 109 4.0 9.0 0.00 0.00 0.00 64 1014.4
20260902045204 84 110 4.0 9.0 0.00 0.00 0.00 64 1014.4
20260902045104 84 109 4.0 9.0 0.00 0.00 0.00 64 1014.4
20260902045004 84 111 4.0 9.0 0.00 0.00 0.00 64 1014.4
20260902044903 84 110 5.0 10.0 0.00 0.00 0.00 63 1014.5
20260902044804 84 112 5.0 10.0 0.00 0.00 0.00 63 1014.5
20260902044704 84 111 5.0 10.0 0.00 0.00 0.00 63 1014.5
20260902044604 84 112 5.0 10.0 0.00 0.00 0.00 63 1014.5
20260902044504 84 111 5.0 10.0 0.00 0.00 0.00 63 1014.6
20260902044404 84 110 5.0 10.0 0.00 0.00 0.00 63 1014.6
20260902044304 84 109 5.0 10.0 0.00 0.00 0.00 63 1014.6
20260902044205 84 110 5.0 10.0 0.00 0.00 0.00 63 1014.6
20260902044103 84 110 6.0 10.0 0.00 0.00 0.00 63 1014.6
20260902044004 84 109 6.0 12.0 0.00 0.00 0.00 63 1014.6
20260902043804 84 107 5.0 12.0 0.00 0.00 0.00 62 1014.6
20260902043703 84 108 5.0 12.0 0.00 0.00 0.00 62 1014.6
20260902043604 84 107 5.0 12.0 0.00 0.00 0.00 62 1014.5
20260902043503 84 107 6.0 12.0 0.00 0.00 0.00 62 1014.5
20260902043404 84 108 6.0 12.0 0.00 0.00 0.00 61 1014.5
20260902043204 84 105 6.0 12.0 0.00 0.00 0.00 61 1014.5
20260902043004 84 104 6.0 12.0 0.00 0.00 0.00 61 1014.5
20260902042904 84 103 6.0 12.0 0.00 0.00 0.00 61 1014.5
20260902042804 84 104 7.0 12.0 0.00 0.00 0.00 61 1014.5
20260902042503 85 104 6.0 12.0 0.00 0.00 0.00 60 1014.5
20260902042404 85 104 6.0 12.0 0.00 0.00 0.00 60 1014.4
20260902042308 85 105 6.0 12.0 0.00 0.00 0.00 60 1014.4
20260902042204 85 104 6.0 12.0 0.00 0.00 0.00 60 1014.4
20260902042104 85 104 6.0 12.0 0.00 0.00 0.00 60 1014.4
20260902042004 85 102 6.0 13.0 0.00 0.00 0.00 60 1014.4
20260902041903 85 101 6.0 13.0 0.00 0.00 0.00 59 1014.4
20260902041804 85 102 6.0 13.0 0.00 0.00 0.00 59 1014.4
20260902041703 85 102 6.0 13.0 0.00 0.00 0.00 59 1014.4
20260902041604 85 103 6.0 13.0 0.00 0.00 0.00 59 1014.4
20260902041504 85 102 6.0 13.0 0.00 0.00 0.00 59 1014.4
20260902041303 85 102 5.0 13.0 0.00 0.00 0.00 59 1014.3
20260902041203 85 102 5.0 13.0 0.00 0.00 0.00 59 1014.3
20260902041104 85 104 5.0 13.0 0.00 0.00 0.00 59 1014.3
20260902041005 86 105 5.0 11.0 0.00 0.00 0.00 58 1014.3
20260902040904 86 106 5.0 11.0 0.00 0.00 0.00 58 1014.4
20260902040804 86 106 5.0 11.0 0.00 0.00 0.00 58 1014.4
20260902040704 86 106 5.0 11.0 0.00 0.00 0.00 58 1014.4
20260902040604 86 106 4.0 11.0 0.00 0.00 0.00 58 1014.4
20260902040504 86 106 4.0 10.0 0.00 0.00 0.00 58 1014.4
20260902040404 86 106 4.0 10.0 0.00 0.00 0.00 58 1014.4
20260902040304 86 107 4.0 10.0 0.00 0.00 0.00 58 1014.4
20260902040104 86 106 4.0 10.0 0.00 0.00 0.00 58 1014.4
20260902035904 86 106 4.0 10.0 0.00 0.00 0.00 57 1014.3
20260902035703 86 105 4.0 10.0 0.00 0.00 0.00 57 1014.4
20260902035604 86 104 4.0 10.0 0.00 0.00 0.00 57 1014.3
20260902035504 86 103 4.0 10.0 0.00 0.00 0.00 57 1014.3
20260902035404 86 103 4.0 10.0 0.00 0.00 0.00 57 1014.3
20260902035103 86 104 3.0 7.0 0.00 0.00 0.00 56 1014.3
20260902035004 86 105 3.0 7.0 0.00 0.00 0.00 56 1014.2
20260902034803 86 108 3.0 7.0 0.00 0.00 0.00 56 1014.2
20260902034606 86 116 2.0 7.0 0.00 0.00 0.00 56 1014.2
20260902034504 86 119 2.0 7.0 0.00 0.00 0.00 56 1014.1
20260902034303 86 126 2.0 4.0 0.00 0.00 0.00 56 1014.0
20260902034203 86 127 2.0 4.0 0.00 0.00 0.00 56 1014.0
20260902034104 86 129 2.0 4.0 0.00 0.00 0.00 56 1014.0
20260902034003 86 130 2.0 4.0 0.00 0.00 0.00 56 1014.0
20260902033803 86 129 2.0 4.0 0.00 0.00 0.00 56 1013.9
20260902033604 86 126 3.0 4.0 0.00 0.00 0.00 56 1013.9
20260902033504 86 125 3.0 7.0 0.00 0.00 0.00 56 1014.0
20260902033403 86 124 3.0 7.0 0.00 0.00 0.00 56 1013.9
20260902033305 86 123 3.0 7.0 0.00 0.00 0.00 56 1013.9
20260902033203 86 122 3.0 7.0 0.00 0.00 0.00 56 1013.9
20260902033104 86 121 3.0 7.0 0.00 0.00 0.00 56 1013.9
20260902033005 86 119 3.0 7.0 0.00 0.00 0.00 56 1013.9
20260902032904 86 118 3.0 7.0 0.00 0.00 0.00 56 1013.9
20260902032803 86 117 3.0 7.0 0.00 0.00 0.00 56 1013.9
20260902032704 86 116 3.0 7.0 0.00 0.00 0.00 56 1013.9
20260902032603 86 115 2.0 7.0 0.00 0.00 0.00 56 1013.9
20260902032403 87 113 2.0 5.0 0.00 0.00 0.00 56 1013.9
20260902032306 87 113 3.0 5.0 0.00 0.00 0.00 56 1013.9
20260902032203 87 112 3.0 5.0 0.00 0.00 0.00 56 1013.8
20260902032104 87 111 3.0 5.0 0.00 0.00 0.00 55 1013.9
20260902032004 87 110 3.0 5.0 0.00 0.00 0.00 55 1013.8
20260902031904 87 108 2.0 5.0 0.00 0.00 0.00 55 1013.9
20260902031804 87 107 2.0 5.0 0.00 0.00 0.00 55 1013.8
20260902031703 87 106 2.0 5.0 0.00 0.00 0.00 55 1013.8
20260902031604 87 107 2.0 5.0 0.00 0.00 0.00 55 1013.8
20260902031503 87 107 3.0 5.0 0.00 0.00 0.00 55 1013.8
20260902031404 87 106 3.0 5.0 0.00 0.00 0.00 55 1013.8
20260902031104 87 106 2.0 5.0 0.00 0.00 0.00 55 1013.7
20260902031004 87 105 2.0 5.0 0.00 0.00 0.00 55 1013.7
20260902030803 87 106 2.0 4.0 0.00 0.00 0.00 55 1013.6
20260902030605 87 105 2.0 4.0 0.00 0.00 0.00 55 1013.6
20260902030405 87 103 2.0 4.0 0.00 0.00 0.00 55 1013.6
20260902030305 87 103 2.0 4.0 0.00 0.00 0.00 55 1013.6
20260902030205 87 102 2.0 4.0 0.00 0.00 0.00 54 1013.5
20260902030105 87 101 2.0 4.0 0.00 0.00 0.00 54 1013.5
20260902030005 87 101 2.0 4.0 0.00 0.00 0.00 54 1013.5
20260902025905 87 101 2.0 4.0 0.00 0.00 0.00 54 1013.5
20260902025805 87 100 2.0 4.0 0.00 0.00 0.00 54 1013.4
20260902025707 87 100 2.0 4.0 0.00 0.00 0.00 54 1013.4
20260902025605 87 100 2.0 4.0 0.00 0.00 0.00 54 1013.5
20260902025506 87 100 2.0 4.0 0.00 0.00 0.00 54 1013.4
20260902025405 87 100 2.0 4.0 0.00 0.00 0.00 54 1013.3
20260902025306 87 100 2.0 4.0 0.00 0.00 0.00 54 1013.3
20260902025205 87 100 2.0 4.0 0.00 0.00 0.00 54 1013.3
20260902025105 87 100 2.0 4.0 0.00 0.00 0.00 54 1013.3
20260902025005 87 99 2.0 4.0 0.00 0.00 0.00 54 1013.2
20260902024905 88 98 2.0 4.0 0.00 0.00 0.00 54 1013.2
20260902024605 88 99 2.0 4.0 0.00 0.00 0.00 53 1013.1
20260902024404 88 100 2.0 4.0 0.00 0.00 0.00 53 1013.0
20260902024305 88 100 2.0 4.0 0.00 0.00 0.00 53 1013.0
20260902024205 88 101 2.0 4.0 0.00 0.00 0.00 53 1013.0
20260902024105 88 101 2.0 4.0 0.00 0.00 0.00 53 1013.0
20260902023905 88 104 2.0 4.0 0.00 0.00 0.00 53 1013.0
20260902023805 88 105 2.0 4.0 0.00 0.00 0.00 53 1013.0
20260902023705 88 105 3.0 4.0 0.00 0.00 0.00 53 1012.9
20260902023605 88 106 2.0 5.0 0.00 0.00 0.00 53 1012.9
20260902023505 88 107 2.0 5.0 0.00 0.00 0.00 52 1012.9
20260902023405 88 108 2.0 5.0 0.00 0.00 0.00 52 1012.9
20260902023204 88 107 3.0 5.0 0.00 0.00 0.00 52 1012.9
20260902023005 88 106 3.0 5.0 0.00 0.00 0.00 52 1012.8
20260902022905 88 106 3.0 5.0 0.00 0.00 0.00 52 1012.9
20260902022805 88 105 3.0 5.0 0.00 0.00 0.00 52 1012.9
20260902022604 88 106 3.0 5.0 0.00 0.00 0.00 52 1012.8
20260902022505 88 106 3.0 5.0 0.00 0.00 0.00 52 1012.8
20260902022405 88 106 3.0 5.0 0.00 0.00 0.00 51 1012.8
20260902022306 89 107 3.0 5.0 0.00 0.00 0.00 51 1012.7
20260902022205 89 108 3.0 5.0 0.00 0.00 0.00 51 1012.7
20260902022106 89 109 3.0 5.0 0.00 0.00 0.00 51 1012.7
20260902022005 89 109 2.0 5.0 0.00 0.00 0.00 50 1012.7
20260902021905 89 110 2.0 5.0 0.00 0.00 0.00 50 1012.7
20260902021705 89 108 3.0 5.0 0.00 0.00 0.00 50 1012.6
20260902021605 89 106 3.0 5.0 0.00 0.00 0.00 50 1012.6
20260902021505 89 106 3.0 5.0 0.00 0.00 0.00 50 1012.5
20260902021405 89 104 3.0 6.0 0.00 0.00 0.00 50 1012.5
20260902021305 89 103 3.0 6.0 0.00 0.00 0.00 50 1012.5
20260902021205 89 102 3.0 6.0 0.00 0.00 0.00 50 1012.5
20260902021105 89 101 3.0 6.0 0.00 0.00 0.00 50 1012.5
20260902020905 89 99 3.0 6.0 0.00 0.00 0.00 50 1012.5
20260902020805 89 99 3.0 6.0 0.00 0.00 0.00 50 1012.5
20260902020705 89 98 3.0 6.0 0.00 0.00 0.00 50 1012.4
20260902020505 89 97 3.0 6.0 0.00 0.00 0.00 50 1012.4
20260902020405 89 98 3.0 5.0 0.00 0.00 0.00 50 1012.4
20260902020305 89 98 3.0 5.0 0.00 0.00 0.00 50 1012.4
20260902020205 90 99 3.0 5.0 0.00 0.00 0.00 50 1012.4
20260902020106 90 100 3.0 5.0 0.00 0.00 0.00 50 1012.4
20260902020005 90 100 3.0 5.0 0.00 0.00 0.00 49 1012.4
20260902015905 90 99 3.0 5.0 0.00 0.00 0.00 49 1012.4
20260902015805 90 99 3.0 6.0 0.00 0.00 0.00 49 1012.4
20260902015706 90 100 3.0 6.0 0.00 0.00 0.00 49 1012.4
20260902015505 90 100 3.0 6.0 0.00 0.00 0.00 49 1012.3
20260902015405 90 99 4.0 6.0 0.00 0.00 0.00 48 1012.3
20260902015205 90 99 4.0 6.0 0.00 0.00 0.00 48 1012.3
20260902015105 90 98 4.0 6.0 0.00 0.00 0.00 48 1012.3
20260902015005 90 99 4.0 6.0 0.00 0.00 0.00 48 1012.3
20260902014805 90 99 4.0 8.0 0.00 0.00 0.00 48 1012.3
20260902014705 90 99 4.0 8.0 0.00 0.00 0.00 48 1012.2
20260902014605 90 99 4.0 8.0 0.00 0.00 0.00 48 1012.2
20260902014506 90 99 4.0 8.0 0.00 0.00 0.00 48 1012.2
20260902014406 90 99 4.0 8.0 0.00 0.00 0.00 48 1012.2
20260902014305 90 99 4.0 8.0 0.00 0.00 0.00 48 1012.2
20260902014205 90 98 4.0 8.0 0.00 0.00 0.00 48 1012.2
20260902014105 91 98 4.0 8.0 0.00 0.00 0.00 48 1012.2
20260902013905 91 98 4.0 8.0 0.00 0.00 0.00 47 1012.2
20260902013806 91 98 4.0 8.0 0.00 0.00 0.00 47 1012.2
20260902013705 91 98 4.0 8.0 0.00 0.00 0.00 47 1012.2
20260902013604 91 98 4.0 8.0 0.00 0.00 0.00 47 1012.2
20260902013505 91 98 4.0 8.0 0.00 0.00 0.00 47 1012.2
20260902013405 91 98 4.0 8.0 0.00 0.00 0.00 47 1012.2
20260902013306 91 97 4.0 8.0 0.00 0.00 0.00 47 1012.2
20260902013205 91 97 4.0 8.0 0.00 0.00 0.00 47 1012.2
20260902013105 91 97 4.0 8.0 0.00 0.00 0.00 46 1012.1
20260902012805 91 97 4.0 8.0 0.00 0.00 0.00 46 1012.2
20260902012705 91 99 4.0 8.0 0.00 0.00 0.00 46 1012.2
20260902012605 91 98 4.0 8.0 0.00 0.00 0.00 46 1012.1
20260902012505 91 98 4.0 8.0 0.00 0.00 0.00 45 1012.1
20260902012404 92 98 4.0 8.0 0.00 0.00 0.00 45 1012.1
20260902012204 92 99 5.0 10.0 0.00 0.00 0.00 45 1012.1
20260902012105 92 98 5.0 10.0 0.00 0.00 0.00 45 1012.1
20260902012006 92 98 5.0 10.0 0.00 0.00 0.00 45 1012.0
20260902011905 92 98 5.0 10.0 0.00 0.00 0.00 45 1012.0
20260902011805 92 97 5.0 10.0 0.00 0.00 0.00 45 1012.0
20260902011505 92 95 5.0 10.0 0.00 0.00 0.00 44 1012.0
20260902011405 92 96 5.0 10.0 0.00 0.00 0.00 44 1011.9
20260902011305 92 98 5.0 10.0 0.00 0.00 0.00 44 1011.9
20260902011204 92 97 5.0 10.0 0.00 0.00 0.00 44 1011.9
20260902011005 92 98 6.0 11.0 0.00 0.00 0.00 45 1011.9
20260902010905 92 98 6.0 11.0 0.00 0.00 0.00 44 1011.9
20260902010805 92 98 6.0 11.0 0.00 0.00 0.00 44 1011.9
20260902010705 92 98 6.0 11.0 0.00 0.00 0.00 44 1011.9
20260902010605 92 99 7.0 11.0 0.00 0.00 0.00 44 1011.9
20260902010505 93 98 7.0 12.0 0.00 0.00 0.00 44 1011.9
20260902010405 93 98 6.0 12.0 0.00 0.00 0.00 44 1011.8
20260902010305 93 97 6.0 12.0 0.00 0.00 0.00 44 1011.8
20260902010205 93 97 6.0 12.0 0.00 0.00 0.00 44 1011.8
20260902005905 93 100 6.0 12.0 0.00 0.00 0.00 44 1011.9
20260902005605 93 103 6.0 12.0 0.00 0.00 0.00 44 1011.9
20260902005505 93 106 5.0 11.0 0.00 0.00 0.00 44 1011.9
20260902005306 93 105 5.0 11.0 0.00 0.00 0.00 43 1011.9
20260902005205 93 106 5.0 11.0 0.00 0.00 0.00 43 1011.9
20260902005105 93 105 5.0 11.0 0.00 0.00 0.00 43 1011.9
20260902005005 93 104 5.0 10.0 0.00 0.00 0.00 43 1011.9
20260902004905 93 103 5.0 10.0 0.00 0.00 0.00 43 1011.9
20260902004804 93 102 5.0 10.0 0.00 0.00 0.00 43 1011.9
20260902004705 94 101 5.0 10.0 0.00 0.00 0.00 43 1011.9
20260902004405 94 98 5.0 10.0 0.00 0.00 0.00 43 1012.0
20260902004305 94 98 5.0 11.0 0.00 0.00 0.00 43 1012.0
20260902004204 94 97 5.0 11.0 0.00 0.00 0.00 43 1012.0
20260902004105 94 96 6.0 11.0 0.00 0.00 0.00 43 1012.0
20260902004005 94 95 6.0 11.0 0.00 0.00 0.00 43 1011.9
20260902003905 94 95 6.0 11.0 0.00 0.00 0.00 43 1011.9
20260902003805 94 94 6.0 11.0 0.00 0.00 0.00 42 1011.9
20260902003705 94 94 6.0 11.0 0.00 0.00 0.00 42 1011.9
20260902003505 94 95 7.0 14.0 0.00 0.00 0.00 42 1011.9
20260902003405 94 95 6.0 14.0 0.00 0.00 0.00 42 1011.9
20260902003305 94 96 6.0 14.0 0.00 0.00 0.00 42 1012.0
20260902003205 94 95 6.0 14.0 0.00 0.00 0.00 42 1011.9
20260902003106 94 94 6.0 14.0 0.00 0.00 0.00 42 1012.0
20260902003005 94 93 6.0 14.0 0.00 0.00 0.00 42 1012.0
20260902002905 94 94 6.0 14.0 0.00 0.00 0.00 42 1011.9
20260902002805 94 94 6.0 14.0 0.00 0.00 0.00 42 1012.0
20260902002705 95 94 6.0 14.0 0.00 0.00 0.00 42 1012.0
20260902002605 95 93 6.0 14.0 0.00 0.00 0.00 42 1012.0
20260902002306 95 97 6.0 12.0 0.00 0.00 0.00 42 1011.9
20260902002205 95 99 6.0 12.0 0.00 0.00 0.00 42 1011.9
20260902002105 95 101 6.0 12.0 0.00 0.00 0.00 41 1012.0
20260902002005 95 103 6.0 12.0 0.00 0.00 0.00 41 1012.0
20260902001905 95 102 6.0 12.0 0.00 0.00 0.00 41 1012.0
20260902001805 95 102 7.0 12.0 0.00 0.00 0.00 41 1012.0
20260902001606 95 103 7.0 12.0 0.00 0.00 0.00 41 1012.0
20260902001505 95 105 6.0 12.0 0.00 0.00 0.00 41 1012.0
20260902001405 95 103 6.0 12.0 0.00 0.00 0.00 40 1012.0
20260902001305 96 102 6.0 12.0 0.00 0.00 0.00 40 1012.0
20260902001205 96 102 6.0 12.0 0.00 0.00 0.00 40 1012.0
20260902001004 96 105 6.0 12.0 0.00 0.00 0.00 40 1012.0
20260902000906 96 107 5.0 12.0 0.00 0.00 0.00 40 1012.0
20260902000805 96 108 5.0 12.0 0.00 0.00 0.00 39 1012.0
20260902000704 96 110 5.0 10.0 0.00 0.00 0.00 39 1011.9
20260902000605 96 111 5.0 10.0 0.00 0.00 0.00 39 1012.0
20260902000505 96 111 5.0 10.0 0.00 0.00 0.00 39 1011.9
20260902000305 96 116 5.0 11.0 0.00 0.00 0.00 39 1011.9
20260902000105 96 115 5.0 11.0 0.00 0.00 0.00 39 1011.9
20260901235806 96 108 5.0 11.0 0.00 0.00 0.00 39 1011.9
20260901235705 96 106 5.0 11.0 0.00 0.00 0.00 39 1012.0
20260901235405 96 98 4.0 11.0 0.00 0.00 0.00 39 1012.0
20260901235307 96 96 5.0 11.0 0.00 0.00 0.00 39 1012.0
20260901235205 96 98 5.0 11.0 0.00 0.00 0.00 40 1012.0
20260901235105 96 101 5.0 11.0 0.00 0.00 0.00 39 1012.0
20260901235005 96 102 5.0 11.0 0.00 0.00 0.00 39 1012.1
20260901234905 96 106 5.0 11.0 0.00 0.00 0.00 39 1012.0
20260901234805 96 109 5.0 11.0 0.00 0.00 0.00 39 1012.0
20260901234705 96 110 6.0 11.0 0.00 0.00 0.00 39 1012.1
20260901234605 96 108 6.0 12.0 0.00 0.00 0.00 39 1012.1
20260901234505 96 107 6.0 12.0 0.00 0.00 0.00 39 1012.1
20260901234405 96 106 7.0 13.0 0.00 0.00 0.00 39 1012.1
20260901234305 96 105 7.0 13.0 0.00 0.00 0.00 39 1012.1
20260901234205 96 103 7.0 13.0 0.00 0.00 0.00 39 1012.1
20260901234105 96 100 7.0 13.0 0.00 0.00 0.00 39 1012.1
20260901234005 96 98 7.0 13.0 0.00 0.00 0.00 39 1012.1
20260901233905 97 97 7.0 13.0 0.00 0.00 0.00 39 1012.1
20260901233805 97 96 7.0 13.0 0.00 0.00 0.00 39 1012.1
20260901233705 97 96 6.0 13.0 0.00 0.00 0.00 39 1012.1
20260901233505 97 101 6.0 13.0 0.00 0.00 0.00 39 1012.1
20260901233404 97 100 6.0 13.0 0.00 0.00 0.00 39 1012.2
20260901233305 97 99 6.0 11.0 0.00 0.00 0.00 39 1012.1
20260901233204 97 98 6.0 11.0 0.00 0.00 0.00 39 1012.1
20260901233105 97 97 6.0 11.0 0.00 0.00 0.00 39 1012.1
20260901233005 97 97 6.0 11.0 0.00 0.00 0.00 39 1012.1
20260901232905 97 97 7.0 12.0 0.00 0.00 0.00 39 1012.1
20260901232805 97 97 7.0 14.0 0.00 0.00 0.00 38 1012.1
20260901232705 98 97 7.0 14.0 0.00 0.00 0.00 38 1012.1
20260901232605 98 98 7.0 14.0 0.00 0.00 0.00 39 1012.2
20260901232505 98 98 7.0 14.0 0.00 0.00 0.00 39 1012.1
20260901232405 98 101 7.0 14.0 0.00 0.00 0.00 39 1012.1
20260901232306 97 102 7.0 14.0 0.00 0.00 0.00 39 1012.2
20260901232205 97 104 7.0 14.0 0.00 0.00 0.00 39 1012.2
20260901232104 97 108 7.0 14.0 0.00 0.00 0.00 39 1012.2
20260901232005 97 108 7.0 14.0 0.00 0.00 0.00 39 1012.1
20260901231905 97 107 7.0 14.0 0.00 0.00 0.00 39 1012.2
20260901231805 97 108 6.0 13.0 0.00 0.00 0.00 39 1012.2
20260901231706 97 108 7.0 13.0 0.00 0.00 0.00 39 1012.2
20260901231605 97 103 6.0 13.0 0.00 0.00 0.00 39 1012.1
20260901231505 97 101 6.0 13.0 0.00 0.00 0.00 39 1012.2
20260901231404 97 100 6.0 13.0 0.00 0.00 0.00 39 1012.2
20260901231305 98 99 7.0 11.0 0.00 0.00 0.00 38 1012.2
20260901231204 98 100 7.0 13.0 0.00 0.00 0.00 38 1012.2
20260901231105 98 97 7.0 15.0 0.00 0.00 0.00 39 1012.2
20260901231005 98 100 7.0 15.0 0.00 0.00 0.00 39 1012.2
20260901230905 98 102 8.0 15.0 0.00 0.00 0.00 39 1012.2
20260901230704 98 105 8.0 15.0 0.00 0.00 0.00 39 1012.2
20260901230405 98 108 9.0 15.0 0.00 0.00 0.00 39 1012.2
20260901230305 98 107 8.0 15.0 0.00 0.00 0.00 39 1012.2
20260901230205 98 107 8.0 15.0 0.00 0.00 0.00 39 1012.2
20260901230105 98 107 7.0 14.0 0.00 0.00 0.00 39 1012.2
20260901230005 98 106 7.0 14.0 0.00 0.00 0.00 39 1012.2
20260901225904 98 106 7.0 14.0 0.00 0.00 0.00 39 1012.2
20260901225804 98 104 6.0 14.0 0.00 0.00 0.00 39 1012.2
20260901225705 98 101 6.0 13.0 0.00 0.00 0.00 39 1012.2
20260901225505 98 97 5.0 12.0 0.00 0.00 0.00 39 1012.3
20260901225405 99 95 5.0 11.0 0.00 0.00 0.00 39 1012.2
20260901225306 99 94 5.0 12.0 0.00 0.00 0.00 38 1012.2
20260901225205 99 95 5.0 12.0 0.00 0.00 0.00 37 1012.2
20260901225105 99 100 6.0 12.0 0.00 0.00 0.00 37 1012.2
20260901225005 98 104 6.0 12.0 0.00 0.00 0.00 37 1012.2
20260901224904 98 104 7.0 12.0 0.00 0.00 0.00 37 1012.2
20260901224805 98 104 7.0 12.0 0.00 0.00 0.00 37 1012.2
20260901224605 98 109 8.0 15.0 0.00 0.00 0.00 37 1012.2
20260901224505 98 110 8.0 15.0 0.00 0.00 0.00 37 1012.2
20260901224404 98 111 8.0 15.0 0.00 0.00 0.00 37 1012.2
20260901224305 98 115 7.0 15.0 0.00 0.00 0.00 37 1012.1
20260901224205 98 116 7.0 15.0 0.00 0.00 0.00 37 1012.1
20260901224105 98 116 8.0 15.0 0.00 0.00 0.00 37 1012.2
20260901224005 99 116 7.0 15.0 0.00 0.00 0.00 37 1012.2
20260901223904 99 116 7.0 15.0 0.00 0.00 0.00 37 1012.2
20260901223805 99 116 7.0 15.0 0.00 0.00 0.00 36 1012.2
20260901223704 99 115 6.0 15.0 0.00 0.00 0.00 36 1012.2
20260901223505 99 112 7.0 14.0 0.00 0.00 0.00 37 1012.2
20260901223204 99 105 7.0 14.0 0.00 0.00 0.00 37 1012.2
20260901223105 100 101 7.0 14.0 0.00 0.00 0.00 37 1012.2
20260901222905 100 95 7.0 13.0 0.00 0.00 0.00 38 1012.3
20260901222804 100 95 7.0 13.0 0.00 0.00 0.00 38 1012.2
20260901222604 100 94 7.0 13.0 0.00 0.00 0.00 37 1012.2
20260901222505 100 94 6.0 13.0 0.00 0.00 0.00 37 1012.2
20260901222404 100 95 6.0 13.0 0.00 0.00 0.00 37 1012.2
20260901222306 100 97 6.0 13.0 0.00 0.00 0.00 37 1012.2
20260901222205 100 101 6.0 13.0 0.00 0.00 0.00 37 1012.2
20260901222105 100 104 5.0 13.0 0.00 0.00 0.00 37 1012.2
20260901222005 100 109 4.0 11.0 0.00 0.00 0.00 37 1012.2
20260901221904 100 111 4.0 10.0 0.00 0.00 0.00 37 1012.2
20260901221805 100 114 4.0 10.0 0.00 0.00 0.00 37 1012.2
20260901221605 100 116 4.0 9.0 0.00 0.00 0.00 37 1012.2
20260901221505 99 116 4.0 9.0 0.00 0.00 0.00 37 1012.2
20260901221405 99 109 5.0 11.0 0.00 0.00 0.00 37 1012.2
20260901221305 99 104 5.0 11.0 0.00 0.00 0.00 37 1012.2
20260901221204 99 100 5.0 14.0 0.00 0.00 0.00 38 1012.2
20260901221105 99 99 6.0 14.0 0.00 0.00 0.00 38 1012.2
20260901220705 99 93 7.0 14.0 0.00 0.00 0.00 37 1012.3
20260901220604 100 94 7.0 14.0 0.00 0.00 0.00 37 1012.3
20260901220506 100 92 7.0 14.0 0.00 0.00 0.00 37 1012.3
20260901220405 100 93 7.0 14.0 0.00 0.00 0.00 37 1012.3
20260901220304 100 92 6.0 14.0 0.00 0.00 0.00 37 1012.3
20260901220205 100 94 6.0 14.0 0.00 0.00 0.00 37 1012.3
20260901220105 99 94 6.0 14.0 0.00 0.00 0.00 37 1012.3
20260901220004 99 98 6.0 14.0 0.00 0.00 0.00 37 1012.3
20260901215905 99 99 5.0 14.0 0.00 0.00 0.00 37 1012.3
20260901215804 99 106 5.0 14.0 0.00 0.00 0.00 37 1012.3
20260901215504 100 120 4.0 11.0 0.00 0.00 0.00 37 1012.3
20260901215405 100 113 4.0 11.0 0.00 0.00 0.00 36 1012.3
20260901215205 100 104 5.0 13.0 0.00 0.00 0.00 36 1012.3
20260901215104 100 99 6.0 13.0 0.00 0.00 0.00 36 1012.2
20260901214905 100 98 6.0 13.0 0.00 0.00 0.00 36 1012.2
20260901214805 100 92 5.0 13.0 0.00 0.00 0.00 37 1012.2
20260901214705 99 88 6.0 13.0 0.00 0.00 0.00 37 1012.3
20260901214604 99 85 6.0 13.0 0.00 0.00 0.00 37 1012.2
20260901214505 99 82 5.0 13.0 0.00 0.00 0.00 36 1012.3
20260901214305 99 82 5.0 13.0 0.00 0.00 0.00 38 1012.3
20260901214205 99 86 5.0 13.0 0.00 0.00 0.00 38 1012.3
20260901214105 98 89 5.0 13.0 0.00 0.00 0.00 37 1012.3
20260901214005 98 88 6.0 13.0 0.00 0.00 0.00 37 1012.3
20260901213905 98 88 7.0 13.0 0.00 0.00 0.00 37 1012.3
20260901213804 99 90 7.0 13.0 0.00 0.00 0.00 37 1012.3
20260901213705 99 90 7.0 13.0 0.00 0.00 0.00 37 1012.3
20260901213505 99 91 7.0 13.0 0.00 0.00 0.00 37 1012.4
20260901213404 99 90 6.0 13.0 0.00 0.00 0.00 37 1012.4
20260901213305 99 93 6.0 13.0 0.00 0.00 0.00 37 1012.4
20260901213204 99 94 5.0 13.0 0.00 0.00 0.00 38 1012.4
20260901213104 99 92 5.0 13.0 0.00 0.00 0.00 38 1012.4
20260901213005 98 90 5.0 13.0 0.00 0.00 0.00 38 1012.4
20260901212904 98 86 4.0 13.0 0.00 0.00 0.00 38 1012.4
20260901212805 98 81 4.0 9.0 0.00 0.00 0.00 38 1012.4
20260901212705 98 79 5.0 9.0 0.00 0.00 0.00 38 1012.4
20260901212604 98 79 5.0 9.0 0.00 0.00 0.00 37 1012.4
20260901212504 98 81 5.0 9.0 0.00 0.00 0.00 36 1012.4
20260901212405 99 85 5.0 10.0 0.00 0.00 0.00 36 1012.4
20260901212306 99 83 5.0 10.0 0.00 0.00 0.00 36 1012.5
20260901212204 99 81 6.0 10.0 0.00 0.00 0.00 35 1012.4
20260901212105 100 80 6.0 10.0 0.00 0.00 0.00 35 1012.4
20260901212004 100 79 5.0 10.0 0.00 0.00 0.00 36 1012.5
20260901211905 100 75 5.0 10.0 0.00 0.00 0.00 36 1012.5
20260901211804 100 74 5.0 10.0 0.00 0.00 0.00 36 1012.5
20260901211705 101 73 6.0 10.0 0.00 0.00 0.00 35 1012.6
20260901211604 101 71 5.0 11.0 0.00 0.00 0.00 36 1012.6
20260901211505 101 71 5.0 11.0 0.00 0.00 0.00 36 1012.5
20260901211404 101 68 5.0 11.0 0.00 0.00 0.00 36 1012.6
20260901211305 101 68 5.0 11.0 0.00 0.00 0.00 37 1012.5
20260901211205 101 70 5.0 11.0 0.00 0.00 0.00 37 1012.6
20260901211105 101 79 5.0 11.0 0.00 0.00 0.00 36 1012.6
20260901210905 100 96 5.0 11.0 0.00 0.00 0.00 37 1012.6
20260901210804 100 99 5.0 11.0 0.00 0.00 0.00 36 1012.7
20260901210706 100 102 5.0 11.0 0.00 0.00 0.00 37 1012.7
20260901210604 100 111 5.0 11.0 0.00 0.00 0.00 37 1012.7
20260901210405 100 112 6.0 12.0 0.00 0.00 0.00 37 1012.8
20260901210206 100 106 7.0 14.0 0.00 0.00 0.00 37 1012.8
20260901210105 100 103 7.0 14.0 0.00 0.00 0.00 38 1012.8
20260901210004 99 100 6.0 14.0 0.00 0.00 0.00 38 1012.7
20260901205904 99 101 7.0 14.0 0.00 0.00 0.00 38 1012.8
20260901205804 99 103 7.0 14.0 0.00 0.00 0.00 38 1012.9
20260901205706 99 106 6.0 14.0 0.00 0.00 0.00 38 1012.9
20260901205604 99 104 6.0 14.0 0.00 0.00 0.00 38 1012.9
20260901205505 99 102 6.0 14.0 0.00 0.00 0.00 38 1012.9
20260901205405 99 100 6.0 14.0 0.00 0.00 0.00 38 1012.9
20260901205204 99 101 5.0 14.0 0.00 0.00 0.00 38 1012.9
20260901205105 99 101 5.0 14.0 0.00 0.00 0.00 39 1012.8
20260901205004 99 102 5.0 10.0 0.00 0.00 0.00 38 1012.9
20260901204905 99 99 5.0 10.0 0.00 0.00 0.00 38 1012.9
20260901204805 99 97 5.0 11.0 0.00 0.00 0.00 36 1013.0
20260901204704 99 97 6.0 11.0 0.00 0.00 0.00 36 1013.0
20260901204505 99 104 6.0 11.0 0.00 0.00 0.00 36 1013.0
20260901204304 99 119 5.0 12.0 0.00 0.00 0.00 38 1013.0
20260901204205 99 125 6.0 12.0 0.00 0.00 0.00 37 1013.0
20260901204104 99 128 6.0 12.0 0.00 0.00 0.00 37 1013.0
20260901204005 99 128 6.0 12.0 0.00 0.00 0.00 37 1013.1
20260901203804 100 127 6.0 13.0 0.00 0.00 0.00 36 1013.0
20260901203705 100 127 6.0 13.0 0.00 0.00 0.00 37 1013.1
20260901203604 100 124 6.0 13.0 0.00 0.00 0.00 37 1013.1
20260901203505 100 121 5.0 13.0 0.00 0.00 0.00 37 1013.1
20260901203404 100 112 6.0 13.0 0.00 0.00 0.00 37 1013.1
20260901203204 100 96 5.0 13.0 0.00 0.00 0.00 37 1013.1
20260901203004 99 82 6.0 13.0 0.00 0.00 0.00 39 1013.2
20260901202804 99 74 6.0 12.0 0.00 0.00 0.00 39 1013.2
20260901202605 99 74 7.0 13.0 0.00 0.00 0.00 36 1013.2
20260901202505 99 77 7.0 13.0 0.00 0.00 0.00 36 1013.2
20260901202404 100 79 7.0 13.0 0.00 0.00 0.00 36 1013.2
20260901202204 100 85 6.0 13.0 0.00 0.00 0.00 36 1013.3
20260901202104 100 90 6.0 13.0 0.00 0.00 0.00 37 1013.3
20260901202005 100 94 5.0 13.0 0.00 0.00 0.00 37 1013.3
20260901201904 100 100 5.0 13.0 0.00 0.00 0.00 37 1013.3
20260901201805 100 111 5.0 13.0 0.00 0.00 0.00 37 1013.3
20260901201705 99 124 4.0 13.0 0.00 0.00 0.00 39 1013.3
20260901201604 99 134 4.0 13.0 0.00 0.00 0.00 39 1013.4
20260901201505 99 140 5.0 13.0 0.00 0.00 0.00 39 1013.4
20260901201404 98 133 5.0 13.0 0.00 0.00 0.00 38 1013.4
20260901201305 98 124 6.0 13.0 0.00 0.00 0.00 38 1013.4
20260901201204 99 113 6.0 13.0 0.00 0.00 0.00 39 1013.5
20260901201105 99 105 6.0 13.0 0.00 0.00 0.00 39 1013.5
20260901201004 99 106 6.0 13.0 0.00 0.00 0.00 39 1013.5
20260901200905 99 109 6.0 13.0 0.00 0.00 0.00 38 1013.5
20260901200705 99 107 6.0 11.0 0.00 0.00 0.00 39 1013.5
20260901200505 99 106 5.0 11.0 0.00 0.00 0.00 39 1013.5
20260901200404 99 107 5.0 11.0 0.00 0.00 0.00 38 1013.6
20260901200305 99 115 5.0 11.0 0.00 0.00 0.00 39 1013.6
20260901200104 99 130 5.0 11.0 0.00 0.00 0.00 38 1013.6
20260901200004 99 129 5.0 11.0 0.00 0.00 0.00 38 1013.6
20260901195904 100 128 5.0 11.0 0.00 0.00 0.00 38 1013.6
20260901195705 100 139 5.0 10.0 0.00 0.00 0.00 39 1013.6
20260901195604 100 143 5.0 10.0 0.00 0.00 0.00 38 1013.6
20260901195505 100 148 5.0 12.0 0.00 0.00 0.00 38 1013.6
20260901195404 100 148 5.0 12.0 0.00 0.00 0.00 38 1013.6
20260901195306 100 148 5.0 12.0 0.00 0.00 0.00 38 1013.6
20260901195204 100 143 5.0 12.0 0.00 0.00 0.00 39 1013.7
20260901195105 100 138 5.0 12.0 0.00 0.00 0.00 40 1013.6
20260901195004 99 136 5.0 12.0 0.00 0.00 0.00 39 1013.7
20260901194904 99 132 5.0 12.0 0.00 0.00 0.00 39 1013.7
20260901194705 98 110 5.0 12.0 0.00 0.00 0.00 39 1013.8
20260901194604 98 100 5.0 12.0 0.00 0.00 0.00 41 1013.8
20260901194404 98 78 5.0 11.0 0.00 0.00 0.00 39 1013.8
20260901194304 98 79 5.0 11.0 0.00 0.00 0.00 40 1013.9
20260901194205 97 78 5.0 11.0 0.00 0.00 0.00 41 1013.9
20260901194104 97 76 5.0 11.0 0.00 0.00 0.00 41 1013.8
20260901194005 98 78 5.0 10.0 0.00 0.00 0.00 40 1013.9
20260901193905 98 79 5.0 10.0 0.00 0.00 0.00 39 1013.9
20260901193805 99 78 5.0 10.0 0.00 0.00 0.00 39 1013.9
20260901193704 99 78 6.0 10.0 0.00 0.00 0.00 40 1013.9
20260901193605 99 77 6.0 11.0 0.00 0.00 0.00 40 1013.9
20260901193504 99 77 6.0 13.0 0.00 0.00 0.00 40 1013.9
20260901193405 98 83 6.0 13.0 0.00 0.00 0.00 40 1013.9
20260901193304 99 81 6.0 13.0 0.00 0.00 0.00 40 1013.9
20260901193204 99 79 6.0 13.0 0.00 0.00 0.00 41 1014.0
20260901193004 98 72 6.0 13.0 0.00 0.00 0.00 41 1014.0
20260901192905 98 71 6.0 13.0 0.00 0.00 0.00 40 1014.0
20260901192805 98 68 6.0 13.0 0.00 0.00 0.00 40 1014.0
20260901192704 98 69 5.0 13.0 0.00 0.00 0.00 40 1014.0
20260901192604 98 68 5.0 13.0 0.00 0.00 0.00 41 1014.0
20260901192504 98 69 4.0 11.0 0.00 0.00 0.00 40 1014.0
20260901192405 99 67 4.0 11.0 0.00 0.00 0.00 39 1014.0
20260901192306 99 66 4.0 11.0 0.00 0.00 0.00 39 1014.0
20260901192205 99 69 4.0 10.0 0.00 0.00 0.00 39 1014.1
20260901192104 99 81 3.0 10.0 0.00 0.00 0.00 40 1014.0
20260901191905 99 127 3.0 10.0 0.00 0.00 0.00 39 1014.1
20260901191705 99 156 3.0 8.0 0.00 0.00 0.00 40 1014.2
20260901191604 99 159 3.0 7.0 0.00 0.00 0.00 40 1014.2
20260901191505 98 158 4.0 11.0 0.00 0.00 0.00 40 1014.2
20260901191404 98 147 4.0 11.0 0.00 0.00 0.00 40 1014.2
20260901191305 99 133 4.0 13.0 0.00 0.00 0.00 39 1014.2
20260901191204 99 128 4.0 13.0 0.00 0.00 0.00 41 1014.2
20260901191105 98 123 5.0 13.0 0.00 0.00 0.00 41 1014.2
20260901191005 98 119 5.0 13.0 0.00 0.00 0.00 40 1014.2
20260901190804 98 111 6.0 13.0 0.00 0.00 0.00 41 1014.3